Multibeam Report for MV1106


Ship Name: Melville
Chief Scientist: Landry, Michael
Scripps Institution of Oceanography
Source Organization: UNOLS R2R
Start Date: 2011-06-18
End Date: 2011-07-17


View ISO Metadata

Visit the full NCEI Bathymetry Viewer


Multibeam Bathymetry

Cruise Details

Project: Ecological Transitions in the California Current Ecosystem: CCE-LTER Phase II
Instrument: Kongsberg EM122

Data Quality

Number of Files: 1342
Number of Records: 288139
BATHYMETRY DATA Quantity Percentage
Number of Beams 82984032 100%
Number of Good Beams 78141215 94.16%
Number of Zero Beams 0 0%
Number of Flagged Beams 4842817 5.84%

Navigation Totals

Total Time: 648.1337 hours
Total Track Length: 4872.3142 km
Average Speed: 7.517 km/hr (4.0589 knots)

Cruise Bounds

Northern Extent: 34.56905
Southern Extent: 32.079433
Western Extent: -122.20857
Eastern Extent: -117.22604

Limits

Minimum Sonar Depth 0 Maximum Sonar Depth 27.1171
Minimum Altitude 0 Maximum Altitude 5180.8501
Minimum Depth 1.0212 Maximum Depth 5459.0859

File Information

Full Resolution Bathymetry as collected (raw): 1339

Files File Size Description
0000_20110618_182246_melville.all.mb58.gz 4.55MB Kongsberg multibeam vendor format
0001_20110618_182938_melville.all.mb58.gz 65.93MB Kongsberg multibeam vendor format
0002_20110618_191317_melville.all.mb58.gz 128.4KB Kongsberg multibeam vendor format
0003_20110618_191847_melville.all.mb58.gz 28.36MB Kongsberg multibeam vendor format
0004_20110618_194850_melville.all.mb58.gz 23.08MB Kongsberg multibeam vendor format
0005_20110618_201849_melville.all.mb58.gz 11.71MB Kongsberg multibeam vendor format
0006_20110618_204851_melville.all.mb58.gz 7.74MB Kongsberg multibeam vendor format
0007_20110618_224205_melville.all.mb58.gz 20.46MB Kongsberg multibeam vendor format
0008_20110618_230846_melville.all.mb58.gz 26.19MB Kongsberg multibeam vendor format
0009_20110618_233848_melville.all.mb58.gz 26.06MB Kongsberg multibeam vendor format
0010_20110619_000848_melville.all.mb58.gz 26.04MB Kongsberg multibeam vendor format
0011_20110619_003847_melville.all.mb58.gz 26.00MB Kongsberg multibeam vendor format
0012_20110619_010847_melville.all.mb58.gz 26.27MB Kongsberg multibeam vendor format
0013_20110619_013850_melville.all.mb58.gz 26.37MB Kongsberg multibeam vendor format
0014_20110619_020849_melville.all.mb58.gz 25.74MB Kongsberg multibeam vendor format
0017_20110619_032107_melville.all.mb58.gz 1.05MB Kongsberg multibeam vendor format
0019_20110619_035932_melville.all.mb58.gz 163.8KB Kongsberg multibeam vendor format
0020_20110619_040015_melville.all.mb58.gz 321.1KB Kongsberg multibeam vendor format
0021_20110619_053456_melville.all.mb58.gz 1.18MB Kongsberg multibeam vendor format
0023_20110619_190111_melville.all.mb58.gz 26.27MB Kongsberg multibeam vendor format
0024_20110619_193113_melville.all.mb58.gz 26.58MB Kongsberg multibeam vendor format
0025_20110619_200115_melville.all.mb58.gz 9.87MB Kongsberg multibeam vendor format
0026_20110619_201344_melville.all.mb58.gz 2.05MB Kongsberg multibeam vendor format
0027_20110619_201822_melville.all.mb58.gz 21.98MB Kongsberg multibeam vendor format
0028_20110619_204823_melville.all.mb58.gz 0.71MB Kongsberg multibeam vendor format
0029_20110619_210458_melville.all.mb58.gz 307.9KB Kongsberg multibeam vendor format
0030_20110619_211218_melville.all.mb58.gz 195.8KB Kongsberg multibeam vendor format
0031_20110619_213000_melville.all.mb58.gz 51.1KB Kongsberg multibeam vendor format
0031_20110619_215951_melville.all.mb58.gz 13.5KB Kongsberg multibeam vendor format
0032_20110619_225913_melville.all.mb58.gz 25.6KB Kongsberg multibeam vendor format
0033_20110619_225947_melville.all.mb58.gz 13.7KB Kongsberg multibeam vendor format
0034_20110619_230817_melville.all.mb58.gz 130.7KB Kongsberg multibeam vendor format
0035_20110619_230952_melville.all.mb58.gz 4.51MB Kongsberg multibeam vendor format
0036_20110619_233959_melville.all.mb58.gz 4.78MB Kongsberg multibeam vendor format
0037_20110620_001000_melville.all.mb58.gz 4.81MB Kongsberg multibeam vendor format
0038_20110620_003957_melville.all.mb58.gz 4.61MB Kongsberg multibeam vendor format
0039_20110620_010953_melville.all.mb58.gz 4.56MB Kongsberg multibeam vendor format
0040_20110620_013954_melville.all.mb58.gz 4.65MB Kongsberg multibeam vendor format
0041_20110620_020955_melville.all.mb58.gz 4.54MB Kongsberg multibeam vendor format
0042_20110620_024001_melville.all.mb58.gz 4.66MB Kongsberg multibeam vendor format
0043_20110620_031001_melville.all.mb58.gz 4.83MB Kongsberg multibeam vendor format
0044_20110620_033957_melville.all.mb58.gz 4.57MB Kongsberg multibeam vendor format
0045_20110620_040956_melville.all.mb58.gz 4.62MB Kongsberg multibeam vendor format
0046_20110620_043950_melville.all.mb58.gz 4.66MB Kongsberg multibeam vendor format
0047_20110620_051002_melville.all.mb58.gz 4.64MB Kongsberg multibeam vendor format
0048_20110620_053957_melville.all.mb58.gz 4.59MB Kongsberg multibeam vendor format
0049_20110620_061003_melville.all.mb58.gz 4.83MB Kongsberg multibeam vendor format
0050_20110620_063959_melville.all.mb58.gz 4.58MB Kongsberg multibeam vendor format
0051_20110620_071001_melville.all.mb58.gz 4.84MB Kongsberg multibeam vendor format
0052_20110620_073952_melville.all.mb58.gz 5.07MB Kongsberg multibeam vendor format
0053_20110620_080956_melville.all.mb58.gz 4.52MB Kongsberg multibeam vendor format
0054_20110620_083951_melville.all.mb58.gz 4.96MB Kongsberg multibeam vendor format
0055_20110620_090958_melville.all.mb58.gz 4.48MB Kongsberg multibeam vendor format
0056_20110620_094003_melville.all.mb58.gz 4.43MB Kongsberg multibeam vendor format
0057_20110620_100957_melville.all.mb58.gz 4.56MB Kongsberg multibeam vendor format
0058_20110620_104005_melville.all.mb58.gz 4.50MB Kongsberg multibeam vendor format
0059_20110620_110952_melville.all.mb58.gz 4.58MB Kongsberg multibeam vendor format
0060_20110620_114007_melville.all.mb58.gz 4.65MB Kongsberg multibeam vendor format
0061_20110620_121006_melville.all.mb58.gz 4.54MB Kongsberg multibeam vendor format
0062_20110620_123957_melville.all.mb58.gz 4.41MB Kongsberg multibeam vendor format
0063_20110620_131004_melville.all.mb58.gz 4.39MB Kongsberg multibeam vendor format
0064_20110620_133950_melville.all.mb58.gz 4.50MB Kongsberg multibeam vendor format
0065_20110620_141010_melville.all.mb58.gz 4.64MB Kongsberg multibeam vendor format
0066_20110620_143953_melville.all.mb58.gz 4.75MB Kongsberg multibeam vendor format
0067_20110620_151004_melville.all.mb58.gz 4.68MB Kongsberg multibeam vendor format
0068_20110620_154002_melville.all.mb58.gz 4.70MB Kongsberg multibeam vendor format
0069_20110620_160954_melville.all.mb58.gz 4.55MB Kongsberg multibeam vendor format
0070_20110620_163959_melville.all.mb58.gz 4.38MB Kongsberg multibeam vendor format
0071_20110620_170954_melville.all.mb58.gz 4.58MB Kongsberg multibeam vendor format
0072_20110620_174003_melville.all.mb58.gz 4.66MB Kongsberg multibeam vendor format
0073_20110620_180958_melville.all.mb58.gz 5.92MB Kongsberg multibeam vendor format
0075_20110620_184858_melville.all.mb58.gz 4.40MB Kongsberg multibeam vendor format
0076_20110620_191915_melville.all.mb58.gz 4.38MB Kongsberg multibeam vendor format
0077_20110620_194915_melville.all.mb58.gz 4.29MB Kongsberg multibeam vendor format
0078_20110620_201910_melville.all.mb58.gz 4.34MB Kongsberg multibeam vendor format
0079_20110620_204906_melville.all.mb58.gz 4.21MB Kongsberg multibeam vendor format
0080_20110620_211909_melville.all.mb58.gz 3.32MB Kongsberg multibeam vendor format
0081_20110620_214250_melville.all.mb58.gz 214.9KB Kongsberg multibeam vendor format
0082_20110620_214423_melville.all.mb58.gz 107.1KB Kongsberg multibeam vendor format
0083_20110620_214703_melville.all.mb58.gz 3.49MB Kongsberg multibeam vendor format
0084_20110620_221345_melville.all.mb58.gz 4.30MB Kongsberg multibeam vendor format
0085_20110620_224354_melville.all.mb58.gz 4.33MB Kongsberg multibeam vendor format
0086_20110620_231340_melville.all.mb58.gz 4.39MB Kongsberg multibeam vendor format
0087_20110620_234349_melville.all.mb58.gz 4.36MB Kongsberg multibeam vendor format
0088_20110621_001338_melville.all.mb58.gz 4.12MB Kongsberg multibeam vendor format
0089_20110621_004351_melville.all.mb58.gz 4.12MB Kongsberg multibeam vendor format
0090_20110621_011341_melville.all.mb58.gz 4.18MB Kongsberg multibeam vendor format
0091_20110621_014348_melville.all.mb58.gz 4.19MB Kongsberg multibeam vendor format
0092_20110621_021341_melville.all.mb58.gz 4.40MB Kongsberg multibeam vendor format
0093_20110621_024344_melville.all.mb58.gz 4.36MB Kongsberg multibeam vendor format
0094_20110621_031351_melville.all.mb58.gz 4.25MB Kongsberg multibeam vendor format
0095_20110621_034349_melville.all.mb58.gz 4.14MB Kongsberg multibeam vendor format
0096_20110621_041339_melville.all.mb58.gz 4.21MB Kongsberg multibeam vendor format
0097_20110621_044340_melville.all.mb58.gz 4.38MB Kongsberg multibeam vendor format
0098_20110621_051352_melville.all.mb58.gz 4.20MB Kongsberg multibeam vendor format
0099_20110621_054342_melville.all.mb58.gz 4.21MB Kongsberg multibeam vendor format
0100_20110621_061343_melville.all.mb58.gz 4.24MB Kongsberg multibeam vendor format
0101_20110621_064349_melville.all.mb58.gz 4.20MB Kongsberg multibeam vendor format
0102_20110621_071339_melville.all.mb58.gz 4.27MB Kongsberg multibeam vendor format
0103_20110621_074338_melville.all.mb58.gz 4.33MB Kongsberg multibeam vendor format
0104_20110621_081347_melville.all.mb58.gz 6.56MB Kongsberg multibeam vendor format
0105_20110621_084349_melville.all.mb58.gz 8.92MB Kongsberg multibeam vendor format
0106_20110621_091341_melville.all.mb58.gz 9.72MB Kongsberg multibeam vendor format
0107_20110621_094339_melville.all.mb58.gz 10.47MB Kongsberg multibeam vendor format
0108_20110621_101340_melville.all.mb58.gz 13.43MB Kongsberg multibeam vendor format
0109_20110621_104341_melville.all.mb58.gz 16.03MB Kongsberg multibeam vendor format
0110_20110621_111343_melville.all.mb58.gz 17.51MB Kongsberg multibeam vendor format
0111_20110621_114340_melville.all.mb58.gz 16.31MB Kongsberg multibeam vendor format
0112_20110621_121340_melville.all.mb58.gz 13.35MB Kongsberg multibeam vendor format
0113_20110621_124338_melville.all.mb58.gz 11.23MB Kongsberg multibeam vendor format
0114_20110621_131349_melville.all.mb58.gz 9.77MB Kongsberg multibeam vendor format
0115_20110621_134348_melville.all.mb58.gz 9.41MB Kongsberg multibeam vendor format
0116_20110621_141338_melville.all.mb58.gz 8.38MB Kongsberg multibeam vendor format
0117_20110621_144346_melville.all.mb58.gz 4.80MB Kongsberg multibeam vendor format
0118_20110621_151339_melville.all.mb58.gz 4.55MB Kongsberg multibeam vendor format
0119_20110621_154353_melville.all.mb58.gz 4.34MB Kongsberg multibeam vendor format
0120_20110621_161351_melville.all.mb58.gz 4.31MB Kongsberg multibeam vendor format
0121_20110621_164345_melville.all.mb58.gz 4.36MB Kongsberg multibeam vendor format
0122_20110621_171358_melville.all.mb58.gz 4.20MB Kongsberg multibeam vendor format
0123_20110621_174342_melville.all.mb58.gz 4.26MB Kongsberg multibeam vendor format
0124_20110621_181344_melville.all.mb58.gz 2.19MB Kongsberg multibeam vendor format
0124_20110621_183018_melville.all.mb58.gz 7.3KB Kongsberg multibeam vendor format
0125_20110621_183047_melville.all.mb58.gz 4.16MB Kongsberg multibeam vendor format
0126_20110621_190105_melville.all.mb58.gz 4.31MB Kongsberg multibeam vendor format
0127_20110621_193104_melville.all.mb58.gz 4.25MB Kongsberg multibeam vendor format
0128_20110621_200050_melville.all.mb58.gz 4.27MB Kongsberg multibeam vendor format
0129_20110621_203055_melville.all.mb58.gz 4.45MB Kongsberg multibeam vendor format
0130_20110621_210100_melville.all.mb58.gz 8.82MB Kongsberg multibeam vendor format
0131_20110621_213055_melville.all.mb58.gz 9.06MB Kongsberg multibeam vendor format
0132_20110621_220056_melville.all.mb58.gz 9.41MB Kongsberg multibeam vendor format
0133_20110621_223058_melville.all.mb58.gz 9.49MB Kongsberg multibeam vendor format
0134_20110621_230052_melville.all.mb58.gz 10.41MB Kongsberg multibeam vendor format
0135_20110621_233051_melville.all.mb58.gz 11.87MB Kongsberg multibeam vendor format
0136_20110622_000048_melville.all.mb58.gz 12.41MB Kongsberg multibeam vendor format
0137_20110622_003051_melville.all.mb58.gz 12.99MB Kongsberg multibeam vendor format
0138_20110622_010047_melville.all.mb58.gz 14.59MB Kongsberg multibeam vendor format
0139_20110622_013053_melville.all.mb58.gz 13.53MB Kongsberg multibeam vendor format
0140_20110622_020049_melville.all.mb58.gz 11.20MB Kongsberg multibeam vendor format
0141_20110622_023057_melville.all.mb58.gz 8.71MB Kongsberg multibeam vendor format
0142_20110622_030052_melville.all.mb58.gz 5.04MB Kongsberg multibeam vendor format
0143_20110622_033056_melville.all.mb58.gz 4.85MB Kongsberg multibeam vendor format
0144_20110622_040052_melville.all.mb58.gz 4.70MB Kongsberg multibeam vendor format
0145_20110622_043049_melville.all.mb58.gz 4.54MB Kongsberg multibeam vendor format
0146_20110622_050101_melville.all.mb58.gz 4.45MB Kongsberg multibeam vendor format
0147_20110622_053102_melville.all.mb58.gz 4.43MB Kongsberg multibeam vendor format
0148_20110622_060100_melville.all.mb58.gz 4.44MB Kongsberg multibeam vendor format
0149_20110622_063059_melville.all.mb58.gz 4.42MB Kongsberg multibeam vendor format
0150_20110622_070049_melville.all.mb58.gz 4.39MB Kongsberg multibeam vendor format
0151_20110622_073058_melville.all.mb58.gz 4.30MB Kongsberg multibeam vendor format
0152_20110622_080053_melville.all.mb58.gz 4.23MB Kongsberg multibeam vendor format
0153_20110622_083048_melville.all.mb58.gz 4.13MB Kongsberg multibeam vendor format
0154_20110622_090055_melville.all.mb58.gz 4.17MB Kongsberg multibeam vendor format
0155_20110622_093105_melville.all.mb58.gz 4.20MB Kongsberg multibeam vendor format
0156_20110622_100058_melville.all.mb58.gz 4.19MB Kongsberg multibeam vendor format
0157_20110622_103050_melville.all.mb58.gz 4.25MB Kongsberg multibeam vendor format
0158_20110622_110052_melville.all.mb58.gz 4.40MB Kongsberg multibeam vendor format
0159_20110622_113105_melville.all.mb58.gz 4.46MB Kongsberg multibeam vendor format
0160_20110622_120049_melville.all.mb58.gz 4.85MB Kongsberg multibeam vendor format
0161_20110622_123107_melville.all.mb58.gz 4.62MB Kongsberg multibeam vendor format
0162_20110622_130058_melville.all.mb58.gz 4.83MB Kongsberg multibeam vendor format
0163_20110622_133102_melville.all.mb58.gz 8.06MB Kongsberg multibeam vendor format
0164_20110622_140047_melville.all.mb58.gz 9.26MB Kongsberg multibeam vendor format
0165_20110622_143053_melville.all.mb58.gz 9.43MB Kongsberg multibeam vendor format
0166_20110622_150100_melville.all.mb58.gz 5.78MB Kongsberg multibeam vendor format
0167_20110622_153104_melville.all.mb58.gz 4.67MB Kongsberg multibeam vendor format
0168_20110622_160056_melville.all.mb58.gz 4.66MB Kongsberg multibeam vendor format
0169_20110622_163103_melville.all.mb58.gz 4.57MB Kongsberg multibeam vendor format
0170_20110622_170100_melville.all.mb58.gz 4.46MB Kongsberg multibeam vendor format
0171_20110622_173107_melville.all.mb58.gz 4.35MB Kongsberg multibeam vendor format
0172_20110622_180103_melville.all.mb58.gz 4.33MB Kongsberg multibeam vendor format
0173_20110622_183105_melville.all.mb58.gz 4.28MB Kongsberg multibeam vendor format
0174_20110622_190052_melville.all.mb58.gz 4.30MB Kongsberg multibeam vendor format
0175_20110622_193048_melville.all.mb58.gz 4.27MB Kongsberg multibeam vendor format
0176_20110622_200107_melville.all.mb58.gz 4.16MB Kongsberg multibeam vendor format
0177_20110622_203103_melville.all.mb58.gz 4.30MB Kongsberg multibeam vendor format
0178_20110622_210103_melville.all.mb58.gz 4.31MB Kongsberg multibeam vendor format
0179_20110622_213058_melville.all.mb58.gz 4.28MB Kongsberg multibeam vendor format
0180_20110622_220105_melville.all.mb58.gz 4.18MB Kongsberg multibeam vendor format
0181_20110622_223051_melville.all.mb58.gz 4.22MB Kongsberg multibeam vendor format
0182_20110622_230058_melville.all.mb58.gz 4.28MB Kongsberg multibeam vendor format
0183_20110622_233101_melville.all.mb58.gz 4.39MB Kongsberg multibeam vendor format
0184_20110623_000057_melville.all.mb58.gz 4.45MB Kongsberg multibeam vendor format
0185_20110623_003105_melville.all.mb58.gz 4.62MB Kongsberg multibeam vendor format
0186_20110623_010053_melville.all.mb58.gz 6.57MB Kongsberg multibeam vendor format
0187_20110623_013057_melville.all.mb58.gz 9.30MB Kongsberg multibeam vendor format
0188_20110623_020048_melville.all.mb58.gz 8.27MB Kongsberg multibeam vendor format
0189_20110623_023056_melville.all.mb58.gz 5.08MB Kongsberg multibeam vendor format
0190_20110623_030054_melville.all.mb58.gz 4.96MB Kongsberg multibeam vendor format
0191_20110623_033052_melville.all.mb58.gz 5.07MB Kongsberg multibeam vendor format
0192_20110623_040057_melville.all.mb58.gz 4.60MB Kongsberg multibeam vendor format
0193_20110623_043046_melville.all.mb58.gz 4.46MB Kongsberg multibeam vendor format
0194_20110623_050104_melville.all.mb58.gz 4.31MB Kongsberg multibeam vendor format
0195_20110623_053048_melville.all.mb58.gz 4.46MB Kongsberg multibeam vendor format
0196_20110623_060055_melville.all.mb58.gz 4.43MB Kongsberg multibeam vendor format
0197_20110623_063058_melville.all.mb58.gz 4.45MB Kongsberg multibeam vendor format
0198_20110623_070105_melville.all.mb58.gz 4.31MB Kongsberg multibeam vendor format
0199_20110623_073047_melville.all.mb58.gz 4.36MB Kongsberg multibeam vendor format
0200_20110623_080048_melville.all.mb58.gz 4.27MB Kongsberg multibeam vendor format
0201_20110623_083050_melville.all.mb58.gz 4.35MB Kongsberg multibeam vendor format
0202_20110623_090101_melville.all.mb58.gz 4.39MB Kongsberg multibeam vendor format
0203_20110623_093049_melville.all.mb58.gz 4.44MB Kongsberg multibeam vendor format
0204_20110623_100055_melville.all.mb58.gz 4.40MB Kongsberg multibeam vendor format
0205_20110623_103048_melville.all.mb58.gz 4.50MB Kongsberg multibeam vendor format
0206_20110623_110052_melville.all.mb58.gz 4.40MB Kongsberg multibeam vendor format
0207_20110623_113050_melville.all.mb58.gz 4.36MB Kongsberg multibeam vendor format
0208_20110623_120103_melville.all.mb58.gz 4.56MB Kongsberg multibeam vendor format
0209_20110623_123054_melville.all.mb58.gz 4.81MB Kongsberg multibeam vendor format
0210_20110623_130057_melville.all.mb58.gz 4.79MB Kongsberg multibeam vendor format
0211_20110623_133102_melville.all.mb58.gz 4.92MB Kongsberg multibeam vendor format
0212_20110623_140057_melville.all.mb58.gz 5.06MB Kongsberg multibeam vendor format
0213_20110623_143058_melville.all.mb58.gz 6.75MB Kongsberg multibeam vendor format
0214_20110623_150050_melville.all.mb58.gz 9.14MB Kongsberg multibeam vendor format
0215_20110623_153054_melville.all.mb58.gz 8.49MB Kongsberg multibeam vendor format
0216_20110623_160048_melville.all.mb58.gz 8.83MB Kongsberg multibeam vendor format
0217_20110623_163054_melville.all.mb58.gz 10.75MB Kongsberg multibeam vendor format
0218_20110623_170054_melville.all.mb58.gz 11.91MB Kongsberg multibeam vendor format
0219_20110623_173051_melville.all.mb58.gz 11.50MB Kongsberg multibeam vendor format
0220_20110623_180056_melville.all.mb58.gz 9.59MB Kongsberg multibeam vendor format
0221_20110623_183056_melville.all.mb58.gz 7.58MB Kongsberg multibeam vendor format
0222_20110623_190047_melville.all.mb58.gz 5.27MB Kongsberg multibeam vendor format
0223_20110623_193058_melville.all.mb58.gz 4.99MB Kongsberg multibeam vendor format
0224_20110623_200050_melville.all.mb58.gz 4.91MB Kongsberg multibeam vendor format
0225_20110623_203053_melville.all.mb58.gz 4.80MB Kongsberg multibeam vendor format
0226_20110623_210050_melville.all.mb58.gz 4.58MB Kongsberg multibeam vendor format
0227_20110623_213054_melville.all.mb58.gz 2.79MB Kongsberg multibeam vendor format
0228_20110623_215335_melville.all.mb58.gz 4.89MB Kongsberg multibeam vendor format
0229_20110623_222355_melville.all.mb58.gz 4.57MB Kongsberg multibeam vendor format
0230_20110623_225350_melville.all.mb58.gz 4.62MB Kongsberg multibeam vendor format
0231_20110623_232355_melville.all.mb58.gz 4.59MB Kongsberg multibeam vendor format
0232_20110623_235344_melville.all.mb58.gz 4.40MB Kongsberg multibeam vendor format
0233_20110624_002337_melville.all.mb58.gz 4.61MB Kongsberg multibeam vendor format
0234_20110624_005350_melville.all.mb58.gz 4.42MB Kongsberg multibeam vendor format
0235_20110624_012346_melville.all.mb58.gz 4.58MB Kongsberg multibeam vendor format
0236_20110624_015347_melville.all.mb58.gz 4.62MB Kongsberg multibeam vendor format
0237_20110624_022337_melville.all.mb58.gz 1.03MB Kongsberg multibeam vendor format
0238_20110624_023442_melville.all.mb58.gz 42.9KB Kongsberg multibeam vendor format
0239_20110624_023833_melville.all.mb58.gz 4.75MB Kongsberg multibeam vendor format
0240_20110624_030825_melville.all.mb58.gz 5.13MB Kongsberg multibeam vendor format
0241_20110624_033828_melville.all.mb58.gz 4.95MB Kongsberg multibeam vendor format
0242_20110624_040829_melville.all.mb58.gz 5.02MB Kongsberg multibeam vendor format
0243_20110624_043820_melville.all.mb58.gz 5.04MB Kongsberg multibeam vendor format
0244_20110624_050824_melville.all.mb58.gz 5.09MB Kongsberg multibeam vendor format
0245_20110624_053819_melville.all.mb58.gz 5.10MB Kongsberg multibeam vendor format
0246_20110624_060827_melville.all.mb58.gz 5.10MB Kongsberg multibeam vendor format
0247_20110624_063829_melville.all.mb58.gz 4.80MB Kongsberg multibeam vendor format
0248_20110624_070833_melville.all.mb58.gz 4.51MB Kongsberg multibeam vendor format
0249_20110624_073829_melville.all.mb58.gz 4.76MB Kongsberg multibeam vendor format
0250_20110624_080825_melville.all.mb58.gz 4.79MB Kongsberg multibeam vendor format
0251_20110624_083827_melville.all.mb58.gz 4.98MB Kongsberg multibeam vendor format
0252_20110624_090819_melville.all.mb58.gz 4.80MB Kongsberg multibeam vendor format
0253_20110624_093819_melville.all.mb58.gz 4.75MB Kongsberg multibeam vendor format
0254_20110624_100826_melville.all.mb58.gz 4.76MB Kongsberg multibeam vendor format
0255_20110624_103827_melville.all.mb58.gz 4.66MB Kongsberg multibeam vendor format
0256_20110624_110818_melville.all.mb58.gz 4.73MB Kongsberg multibeam vendor format
0257_20110624_113836_melville.all.mb58.gz 4.73MB Kongsberg multibeam vendor format
0258_20110624_120820_melville.all.mb58.gz 4.90MB Kongsberg multibeam vendor format
0259_20110624_123821_melville.all.mb58.gz 4.84MB Kongsberg multibeam vendor format
0260_20110624_130819_melville.all.mb58.gz 4.69MB Kongsberg multibeam vendor format
0261_20110624_133821_melville.all.mb58.gz 4.75MB Kongsberg multibeam vendor format
0262_20110624_140819_melville.all.mb58.gz 4.78MB Kongsberg multibeam vendor format
0263_20110624_143819_melville.all.mb58.gz 4.86MB Kongsberg multibeam vendor format
0264_20110624_150821_melville.all.mb58.gz 4.79MB Kongsberg multibeam vendor format
0265_20110624_153821_melville.all.mb58.gz 4.86MB Kongsberg multibeam vendor format
0266_20110624_160831_melville.all.mb58.gz 4.94MB Kongsberg multibeam vendor format
0267_20110624_163828_melville.all.mb58.gz 4.72MB Kongsberg multibeam vendor format
0268_20110624_170818_melville.all.mb58.gz 5.00MB Kongsberg multibeam vendor format
0269_20110624_173828_melville.all.mb58.gz 4.90MB Kongsberg multibeam vendor format
0270_20110624_180827_melville.all.mb58.gz 4.86MB Kongsberg multibeam vendor format
0271_20110624_183827_melville.all.mb58.gz 4.63MB Kongsberg multibeam vendor format
0272_20110624_190828_melville.all.mb58.gz 4.75MB Kongsberg multibeam vendor format
0273_20110624_193824_melville.all.mb58.gz 4.78MB Kongsberg multibeam vendor format
0274_20110624_200832_melville.all.mb58.gz 4.80MB Kongsberg multibeam vendor format
0275_20110624_203826_melville.all.mb58.gz 5.02MB Kongsberg multibeam vendor format
0276_20110624_210823_melville.all.mb58.gz 5.44MB Kongsberg multibeam vendor format
0277_20110624_213818_melville.all.mb58.gz 5.29MB Kongsberg multibeam vendor format
0278_20110624_220830_melville.all.mb58.gz 4.97MB Kongsberg multibeam vendor format
0279_20110624_223819_melville.all.mb58.gz 4.65MB Kongsberg multibeam vendor format
0280_20110624_230818_melville.all.mb58.gz 4.55MB Kongsberg multibeam vendor format
0281_20110624_233822_melville.all.mb58.gz 4.58MB Kongsberg multibeam vendor format
0282_20110625_000823_melville.all.mb58.gz 4.58MB Kongsberg multibeam vendor format
0283_20110625_003824_melville.all.mb58.gz 4.66MB Kongsberg multibeam vendor format
0284_20110625_010833_melville.all.mb58.gz 4.54MB Kongsberg multibeam vendor format
0285_20110625_013820_melville.all.mb58.gz 4.67MB Kongsberg multibeam vendor format
0286_20110625_020836_melville.all.mb58.gz 4.72MB Kongsberg multibeam vendor format
0287_20110625_023830_melville.all.mb58.gz 4.64MB Kongsberg multibeam vendor format
0288_20110625_030832_melville.all.mb58.gz 4.66MB Kongsberg multibeam vendor format
0289_20110625_033832_melville.all.mb58.gz 4.59MB Kongsberg multibeam vendor format
0290_20110625_040819_melville.all.mb58.gz 4.80MB Kongsberg multibeam vendor format
0291_20110625_043829_melville.all.mb58.gz 5.18MB Kongsberg multibeam vendor format
0292_20110625_050817_melville.all.mb58.gz 5.49MB Kongsberg multibeam vendor format
0293_20110625_053822_melville.all.mb58.gz 5.22MB Kongsberg multibeam vendor format
0294_20110625_060827_melville.all.mb58.gz 5.24MB Kongsberg multibeam vendor format
0295_20110625_063826_melville.all.mb58.gz 5.12MB Kongsberg multibeam vendor format
0296_20110625_070829_melville.all.mb58.gz 4.81MB Kongsberg multibeam vendor format
0297_20110625_073824_melville.all.mb58.gz 4.73MB Kongsberg multibeam vendor format
0298_20110625_080825_melville.all.mb58.gz 5.21MB Kongsberg multibeam vendor format
0299_20110625_083824_melville.all.mb58.gz 4.86MB Kongsberg multibeam vendor format
0300_20110625_090830_melville.all.mb58.gz 4.96MB Kongsberg multibeam vendor format
0301_20110625_093831_melville.all.mb58.gz 4.84MB Kongsberg multibeam vendor format
0302_20110625_100819_melville.all.mb58.gz 4.72MB Kongsberg multibeam vendor format
0303_20110625_103821_melville.all.mb58.gz 5.00MB Kongsberg multibeam vendor format
0304_20110625_110829_melville.all.mb58.gz 5.24MB Kongsberg multibeam vendor format
0305_20110625_113819_melville.all.mb58.gz 4.88MB Kongsberg multibeam vendor format
0306_20110625_120824_melville.all.mb58.gz 4.80MB Kongsberg multibeam vendor format
0307_20110625_123826_melville.all.mb58.gz 4.72MB Kongsberg multibeam vendor format
0308_20110625_130826_melville.all.mb58.gz 4.60MB Kongsberg multibeam vendor format
0309_20110625_133827_melville.all.mb58.gz 4.96MB Kongsberg multibeam vendor format
0310_20110625_140826_melville.all.mb58.gz 5.35MB Kongsberg multibeam vendor format
0311_20110625_143829_melville.all.mb58.gz 4.73MB Kongsberg multibeam vendor format
0312_20110625_150819_melville.all.mb58.gz 3.85MB Kongsberg multibeam vendor format
0313_20110625_153819_melville.all.mb58.gz 5.07MB Kongsberg multibeam vendor format
0314_20110625_160824_melville.all.mb58.gz 4.79MB Kongsberg multibeam vendor format
0315_20110625_163818_melville.all.mb58.gz 5.24MB Kongsberg multibeam vendor format
0316_20110625_170826_melville.all.mb58.gz 4.92MB Kongsberg multibeam vendor format
0317_20110625_173830_melville.all.mb58.gz 4.71MB Kongsberg multibeam vendor format
0318_20110625_180825_melville.all.mb58.gz 4.24MB Kongsberg multibeam vendor format
0319_20110625_183818_melville.all.mb58.gz 4.40MB Kongsberg multibeam vendor format
0320_20110625_190827_melville.all.mb58.gz 5.05MB Kongsberg multibeam vendor format
0321_20110625_193829_melville.all.mb58.gz 4.88MB Kongsberg multibeam vendor format
0322_20110625_200816_melville.all.mb58.gz 4.68MB Kongsberg multibeam vendor format
0323_20110625_203830_melville.all.mb58.gz 4.46MB Kongsberg multibeam vendor format
0324_20110625_210829_melville.all.mb58.gz 4.62MB Kongsberg multibeam vendor format
0325_20110625_213828_melville.all.mb58.gz 5.18MB Kongsberg multibeam vendor format
0326_20110625_220824_melville.all.mb58.gz 5.12MB Kongsberg multibeam vendor format
0327_20110625_223819_melville.all.mb58.gz 5.18MB Kongsberg multibeam vendor format
0328_20110625_230825_melville.all.mb58.gz 5.18MB Kongsberg multibeam vendor format
0329_20110625_233817_melville.all.mb58.gz 4.92MB Kongsberg multibeam vendor format
0330_20110626_000816_melville.all.mb58.gz 4.99MB Kongsberg multibeam vendor format
0331_20110626_003827_melville.all.mb58.gz 5.05MB Kongsberg multibeam vendor format
0332_20110626_010830_melville.all.mb58.gz 4.45MB Kongsberg multibeam vendor format
0333_20110626_013823_melville.all.mb58.gz 4.88MB Kongsberg multibeam vendor format
0334_20110626_020816_melville.all.mb58.gz 4.66MB Kongsberg multibeam vendor format
0335_20110626_023823_melville.all.mb58.gz 4.65MB Kongsberg multibeam vendor format
0336_20110626_030824_melville.all.mb58.gz 4.41MB Kongsberg multibeam vendor format
0337_20110626_033824_melville.all.mb58.gz 4.85MB Kongsberg multibeam vendor format
0338_20110626_040831_melville.all.mb58.gz 5.31MB Kongsberg multibeam vendor format
0339_20110626_043817_melville.all.mb58.gz 5.44MB Kongsberg multibeam vendor format
0340_20110626_050825_melville.all.mb58.gz 5.33MB Kongsberg multibeam vendor format
0341_20110626_053821_melville.all.mb58.gz 5.08MB Kongsberg multibeam vendor format
0342_20110626_060819_melville.all.mb58.gz 4.93MB Kongsberg multibeam vendor format
0343_20110626_063820_melville.all.mb58.gz 4.85MB Kongsberg multibeam vendor format
0344_20110626_070824_melville.all.mb58.gz 5.09MB Kongsberg multibeam vendor format
0345_20110626_073828_melville.all.mb58.gz 4.41MB Kongsberg multibeam vendor format
0346_20110626_080818_melville.all.mb58.gz 4.98MB Kongsberg multibeam vendor format
0347_20110626_083830_melville.all.mb58.gz 5.13MB Kongsberg multibeam vendor format
0348_20110626_090828_melville.all.mb58.gz 5.13MB Kongsberg multibeam vendor format
0349_20110626_093821_melville.all.mb58.gz 5.13MB Kongsberg multibeam vendor format
0350_20110626_100827_melville.all.mb58.gz 4.80MB Kongsberg multibeam vendor format
0351_20110626_103821_melville.all.mb58.gz 5.38MB Kongsberg multibeam vendor format
0352_20110626_110820_melville.all.mb58.gz 5.08MB Kongsberg multibeam vendor format
0353_20110626_113821_melville.all.mb58.gz 5.00MB Kongsberg multibeam vendor format
0354_20110626_120827_melville.all.mb58.gz 5.03MB Kongsberg multibeam vendor format
0355_20110626_123815_melville.all.mb58.gz 5.05MB Kongsberg multibeam vendor format
0356_20110626_130827_melville.all.mb58.gz 4.88MB Kongsberg multibeam vendor format
0357_20110626_133832_melville.all.mb58.gz 4.96MB Kongsberg multibeam vendor format
0358_20110626_140825_melville.all.mb58.gz 4.68MB Kongsberg multibeam vendor format
0359_20110626_143822_melville.all.mb58.gz 4.56MB Kongsberg multibeam vendor format
0360_20110626_150817_melville.all.mb58.gz 4.75MB Kongsberg multibeam vendor format
0361_20110626_153815_melville.all.mb58.gz 4.56MB Kongsberg multibeam vendor format
0362_20110626_160819_melville.all.mb58.gz 4.80MB Kongsberg multibeam vendor format
0363_20110626_163819_melville.all.mb58.gz 4.63MB Kongsberg multibeam vendor format
0364_20110626_170827_melville.all.mb58.gz 4.85MB Kongsberg multibeam vendor format
0365_20110626_173827_melville.all.mb58.gz 5.10MB Kongsberg multibeam vendor format
0366_20110626_180827_melville.all.mb58.gz 4.97MB Kongsberg multibeam vendor format
0367_20110626_183827_melville.all.mb58.gz 5.00MB Kongsberg multibeam vendor format
0368_20110626_190831_melville.all.mb58.gz 5.02MB Kongsberg multibeam vendor format
0369_20110626_193817_melville.all.mb58.gz 4.92MB Kongsberg multibeam vendor format
0370_20110626_200816_melville.all.mb58.gz 4.71MB Kongsberg multibeam vendor format
0371_20110626_203831_melville.all.mb58.gz 4.79MB Kongsberg multibeam vendor format
0372_20110626_210834_melville.all.mb58.gz 4.82MB Kongsberg multibeam vendor format
0373_20110626_213818_melville.all.mb58.gz 4.67MB Kongsberg multibeam vendor format
0374_20110626_220823_melville.all.mb58.gz 4.56MB Kongsberg multibeam vendor format
0375_20110626_223828_melville.all.mb58.gz 4.67MB Kongsberg multibeam vendor format
0376_20110626_230831_melville.all.mb58.gz 4.63MB Kongsberg multibeam vendor format
0377_20110626_233815_melville.all.mb58.gz 4.68MB Kongsberg multibeam vendor format
0378_20110627_000823_melville.all.mb58.gz 4.52MB Kongsberg multibeam vendor format
0379_20110627_003816_melville.all.mb58.gz 4.46MB Kongsberg multibeam vendor format
0380_20110627_010828_melville.all.mb58.gz 4.49MB Kongsberg multibeam vendor format
0381_20110627_013833_melville.all.mb58.gz 4.45MB Kongsberg multibeam vendor format
0382_20110627_020833_melville.all.mb58.gz 4.35MB Kongsberg multibeam vendor format
0383_20110627_023823_melville.all.mb58.gz 4.32MB Kongsberg multibeam vendor format
0384_20110627_030828_melville.all.mb58.gz 4.44MB Kongsberg multibeam vendor format
0385_20110627_033830_melville.all.mb58.gz 4.41MB Kongsberg multibeam vendor format
0386_20110627_040821_melville.all.mb58.gz 4.54MB Kongsberg multibeam vendor format
0387_20110627_043832_melville.all.mb58.gz 4.48MB Kongsberg multibeam vendor format
0388_20110627_050817_melville.all.mb58.gz 4.56MB Kongsberg multibeam vendor format
0389_20110627_053821_melville.all.mb58.gz 4.36MB Kongsberg multibeam vendor format
0390_20110627_060827_melville.all.mb58.gz 4.40MB Kongsberg multibeam vendor format
0391_20110627_063818_melville.all.mb58.gz 4.39MB Kongsberg multibeam vendor format
0392_20110627_070828_melville.all.mb58.gz 4.40MB Kongsberg multibeam vendor format
0393_20110627_073828_melville.all.mb58.gz 4.34MB Kongsberg multibeam vendor format
0394_20110627_080818_melville.all.mb58.gz 4.37MB Kongsberg multibeam vendor format
0395_20110627_083814_melville.all.mb58.gz 4.57MB Kongsberg multibeam vendor format
0396_20110627_090814_melville.all.mb58.gz 4.41MB Kongsberg multibeam vendor format
0397_20110627_093829_melville.all.mb58.gz 4.34MB Kongsberg multibeam vendor format
0398_20110627_100818_melville.all.mb58.gz 4.28MB Kongsberg multibeam vendor format
0399_20110627_103814_melville.all.mb58.gz 4.39MB Kongsberg multibeam vendor format
0400_20110627_110817_melville.all.mb58.gz 4.57MB Kongsberg multibeam vendor format
0401_20110627_113829_melville.all.mb58.gz 4.55MB Kongsberg multibeam vendor format
0402_20110627_120829_melville.all.mb58.gz 4.50MB Kongsberg multibeam vendor format
0403_20110627_123821_melville.all.mb58.gz 4.40MB Kongsberg multibeam vendor format
0404_20110627_130826_melville.all.mb58.gz 4.41MB Kongsberg multibeam vendor format
0405_20110627_133822_melville.all.mb58.gz 4.61MB Kongsberg multibeam vendor format
0406_20110627_140818_melville.all.mb58.gz 4.45MB Kongsberg multibeam vendor format
0407_20110627_143821_melville.all.mb58.gz 4.36MB Kongsberg multibeam vendor format
0408_20110627_150816_melville.all.mb58.gz 4.52MB Kongsberg multibeam vendor format
0409_20110627_153822_melville.all.mb58.gz 4.45MB Kongsberg multibeam vendor format
0410_20110627_160827_melville.all.mb58.gz 4.21MB Kongsberg multibeam vendor format
0411_20110627_163816_melville.all.mb58.gz 4.64MB Kongsberg multibeam vendor format
0412_20110627_170818_melville.all.mb58.gz 4.47MB Kongsberg multibeam vendor format
0413_20110627_173814_melville.all.mb58.gz 4.40MB Kongsberg multibeam vendor format
0414_20110627_180831_melville.all.mb58.gz 3.24MB Kongsberg multibeam vendor format
0415_20110627_183822_melville.all.mb58.gz 3.89MB Kongsberg multibeam vendor format
0416_20110627_190830_melville.all.mb58.gz 4.43MB Kongsberg multibeam vendor format
0417_20110627_193822_melville.all.mb58.gz 4.51MB Kongsberg multibeam vendor format
0418_20110627_200826_melville.all.mb58.gz 4.32MB Kongsberg multibeam vendor format
0419_20110627_203826_melville.all.mb58.gz 4.50MB Kongsberg multibeam vendor format
0420_20110627_210816_melville.all.mb58.gz 4.98MB Kongsberg multibeam vendor format
0421_20110627_213825_melville.all.mb58.gz 4.85MB Kongsberg multibeam vendor format
0422_20110627_220826_melville.all.mb58.gz 4.66MB Kongsberg multibeam vendor format
0423_20110627_223823_melville.all.mb58.gz 4.55MB Kongsberg multibeam vendor format
0424_20110627_230816_melville.all.mb58.gz 4.53MB Kongsberg multibeam vendor format
0425_20110627_233819_melville.all.mb58.gz 4.36MB Kongsberg multibeam vendor format
0426_20110628_000822_melville.all.mb58.gz 4.48MB Kongsberg multibeam vendor format
0427_20110628_003822_melville.all.mb58.gz 4.74MB Kongsberg multibeam vendor format
0428_20110628_010815_melville.all.mb58.gz 4.41MB Kongsberg multibeam vendor format
0429_20110628_013833_melville.all.mb58.gz 4.30MB Kongsberg multibeam vendor format
0430_20110628_020814_melville.all.mb58.gz 4.46MB Kongsberg multibeam vendor format
0431_20110628_023835_melville.all.mb58.gz 4.72MB Kongsberg multibeam vendor format
0432_20110628_030829_melville.all.mb58.gz 4.62MB Kongsberg multibeam vendor format
0433_20110628_033818_melville.all.mb58.gz 3.68MB Kongsberg multibeam vendor format
0434_20110628_040822_melville.all.mb58.gz 4.75MB Kongsberg multibeam vendor format
0435_20110628_043821_melville.all.mb58.gz 4.65MB Kongsberg multibeam vendor format
0436_20110628_050827_melville.all.mb58.gz 3.26MB Kongsberg multibeam vendor format
0437_20110628_053813_melville.all.mb58.gz 287.1KB Kongsberg multibeam vendor format
0438_20110628_054533_melville.all.mb58.gz 3.95MB Kongsberg multibeam vendor format
0439_20110628_061539_melville.all.mb58.gz 4.30MB Kongsberg multibeam vendor format
0440_20110628_064540_melville.all.mb58.gz 4.40MB Kongsberg multibeam vendor format
0441_20110628_071547_melville.all.mb58.gz 4.47MB Kongsberg multibeam vendor format
0442_20110628_074552_melville.all.mb58.gz 4.49MB Kongsberg multibeam vendor format
0443_20110628_081552_melville.all.mb58.gz 4.27MB Kongsberg multibeam vendor format
0444_20110628_084543_melville.all.mb58.gz 4.27MB Kongsberg multibeam vendor format
0445_20110628_091539_melville.all.mb58.gz 4.09MB Kongsberg multibeam vendor format
0446_20110628_094554_melville.all.mb58.gz 4.05MB Kongsberg multibeam vendor format
0447_20110628_101547_melville.all.mb58.gz 4.08MB Kongsberg multibeam vendor format
0448_20110628_104544_melville.all.mb58.gz 4.14MB Kongsberg multibeam vendor format
0449_20110628_111543_melville.all.mb58.gz 4.07MB Kongsberg multibeam vendor format
0450_20110628_114540_melville.all.mb58.gz 4.07MB Kongsberg multibeam vendor format
0451_20110628_121534_melville.all.mb58.gz 4.17MB Kongsberg multibeam vendor format
0452_20110628_124555_melville.all.mb58.gz 3.68MB Kongsberg multibeam vendor format
0453_20110628_131538_melville.all.mb58.gz 1.31MB Kongsberg multibeam vendor format
0454_20110628_134546_melville.all.mb58.gz 4.36MB Kongsberg multibeam vendor format
0455_20110628_141546_melville.all.mb58.gz 4.37MB Kongsberg multibeam vendor format
0456_20110628_144538_melville.all.mb58.gz 4.27MB Kongsberg multibeam vendor format
0457_20110628_151550_melville.all.mb58.gz 4.21MB Kongsberg multibeam vendor format
0458_20110628_154540_melville.all.mb58.gz 4.04MB Kongsberg multibeam vendor format
0459_20110628_161542_melville.all.mb58.gz 4.36MB Kongsberg multibeam vendor format
0460_20110628_164550_melville.all.mb58.gz 3.87MB Kongsberg multibeam vendor format
0461_20110628_171543_melville.all.mb58.gz 4.03MB Kongsberg multibeam vendor format
0462_20110628_174537_melville.all.mb58.gz 4.32MB Kongsberg multibeam vendor format
0463_20110628_181537_melville.all.mb58.gz 4.25MB Kongsberg multibeam vendor format
0464_20110628_184539_melville.all.mb58.gz 3.83MB Kongsberg multibeam vendor format
0465_20110628_191555_melville.all.mb58.gz 3.89MB Kongsberg multibeam vendor format
0466_20110628_194538_melville.all.mb58.gz 4.30MB Kongsberg multibeam vendor format
0467_20110628_201542_melville.all.mb58.gz 4.09MB Kongsberg multibeam vendor format
0468_20110628_204542_melville.all.mb58.gz 2.87MB Kongsberg multibeam vendor format
0469_20110628_214235_melville.all.mb58.gz 449.7KB Kongsberg multibeam vendor format
0469_20110628_215132_melville.all.mb58.gz 4.01MB Kongsberg multibeam vendor format
0470_20110628_222136_melville.all.mb58.gz 3.99MB Kongsberg multibeam vendor format
0471_20110628_225147_melville.all.mb58.gz 3.97MB Kongsberg multibeam vendor format
0472_20110628_232143_melville.all.mb58.gz 3.93MB Kongsberg multibeam vendor format
0473_20110628_235134_melville.all.mb58.gz 3.93MB Kongsberg multibeam vendor format
0474_20110629_002141_melville.all.mb58.gz 3.91MB Kongsberg multibeam vendor format
0475_20110629_005152_melville.all.mb58.gz 3.77MB Kongsberg multibeam vendor format
0476_20110629_012141_melville.all.mb58.gz 3.83MB Kongsberg multibeam vendor format
0477_20110629_015134_melville.all.mb58.gz 3.84MB Kongsberg multibeam vendor format
0478_20110629_022148_melville.all.mb58.gz 3.97MB Kongsberg multibeam vendor format
0479_20110629_025143_melville.all.mb58.gz 4.09MB Kongsberg multibeam vendor format
0480_20110629_032148_melville.all.mb58.gz 3.63MB Kongsberg multibeam vendor format
0481_20110629_035148_melville.all.mb58.gz 4.02MB Kongsberg multibeam vendor format
0482_20110629_042138_melville.all.mb58.gz 3.15MB Kongsberg multibeam vendor format
0483_20110629_045135_melville.all.mb58.gz 4.03MB Kongsberg multibeam vendor format
0484_20110629_052137_melville.all.mb58.gz 4.03MB Kongsberg multibeam vendor format
0485_20110629_055151_melville.all.mb58.gz 3.97MB Kongsberg multibeam vendor format
0486_20110629_062137_melville.all.mb58.gz 4.04MB Kongsberg multibeam vendor format
0487_20110629_065150_melville.all.mb58.gz 3.94MB Kongsberg multibeam vendor format
0488_20110629_072145_melville.all.mb58.gz 3.95MB Kongsberg multibeam vendor format
0489_20110629_075141_melville.all.mb58.gz 3.82MB Kongsberg multibeam vendor format
0490_20110629_082151_melville.all.mb58.gz 3.79MB Kongsberg multibeam vendor format
0491_20110629_085133_melville.all.mb58.gz 3.93MB Kongsberg multibeam vendor format
0492_20110629_092142_melville.all.mb58.gz 4.01MB Kongsberg multibeam vendor format
0493_20110629_095134_melville.all.mb58.gz 4.09MB Kongsberg multibeam vendor format
0494_20110629_102138_melville.all.mb58.gz 4.08MB Kongsberg multibeam vendor format
0495_20110629_105140_melville.all.mb58.gz 4.12MB Kongsberg multibeam vendor format
0496_20110629_112149_melville.all.mb58.gz 3.97MB Kongsberg multibeam vendor format
0497_20110629_115145_melville.all.mb58.gz 4.16MB Kongsberg multibeam vendor format
0498_20110629_122147_melville.all.mb58.gz 4.05MB Kongsberg multibeam vendor format
0499_20110629_125144_melville.all.mb58.gz 4.33MB Kongsberg multibeam vendor format
0500_20110629_132137_melville.all.mb58.gz 4.28MB Kongsberg multibeam vendor format
0501_20110629_135151_melville.all.mb58.gz 4.05MB Kongsberg multibeam vendor format
0502_20110629_142134_melville.all.mb58.gz 4.03MB Kongsberg multibeam vendor format
0503_20110629_145142_melville.all.mb58.gz 4.01MB Kongsberg multibeam vendor format
0504_20110629_152146_melville.all.mb58.gz 3.75MB Kongsberg multibeam vendor format
0505_20110629_155132_melville.all.mb58.gz 3.98MB Kongsberg multibeam vendor format
0506_20110629_162134_melville.all.mb58.gz 3.94MB Kongsberg multibeam vendor format
0507_20110629_165141_melville.all.mb58.gz 4.17MB Kongsberg multibeam vendor format
0508_20110629_172151_melville.all.mb58.gz 4.14MB Kongsberg multibeam vendor format
0509_20110629_175132_melville.all.mb58.gz 4.38MB Kongsberg multibeam vendor format
0510_20110629_182146_melville.all.mb58.gz 4.29MB Kongsberg multibeam vendor format
0511_20110629_185145_melville.all.mb58.gz 3.96MB Kongsberg multibeam vendor format
0512_20110629_192136_melville.all.mb58.gz 4.07MB Kongsberg multibeam vendor format
0513_20110629_195142_melville.all.mb58.gz 4.10MB Kongsberg multibeam vendor format
0514_20110629_202148_melville.all.mb58.gz 4.09MB Kongsberg multibeam vendor format
0515_20110629_205145_melville.all.mb58.gz 4.05MB Kongsberg multibeam vendor format
0516_20110629_212147_melville.all.mb58.gz 4.03MB Kongsberg multibeam vendor format
0517_20110629_215138_melville.all.mb58.gz 4.05MB Kongsberg multibeam vendor format
0518_20110629_222141_melville.all.mb58.gz 4.14MB Kongsberg multibeam vendor format
0519_20110629_225137_melville.all.mb58.gz 4.09MB Kongsberg multibeam vendor format
0520_20110629_232150_melville.all.mb58.gz 4.06MB Kongsberg multibeam vendor format
0521_20110629_235134_melville.all.mb58.gz 4.19MB Kongsberg multibeam vendor format
0522_20110630_002139_melville.all.mb58.gz 4.18MB Kongsberg multibeam vendor format
0523_20110630_005149_melville.all.mb58.gz 4.19MB Kongsberg multibeam vendor format
0524_20110630_012132_melville.all.mb58.gz 4.29MB Kongsberg multibeam vendor format
0525_20110630_015135_melville.all.mb58.gz 4.32MB Kongsberg multibeam vendor format
0526_20110630_022132_melville.all.mb58.gz 4.34MB Kongsberg multibeam vendor format
0527_20110630_025140_melville.all.mb58.gz 4.37MB Kongsberg multibeam vendor format
0528_20110630_032144_melville.all.mb58.gz 4.50MB Kongsberg multibeam vendor format
0529_20110630_035147_melville.all.mb58.gz 4.15MB Kongsberg multibeam vendor format
0530_20110630_042134_melville.all.mb58.gz 4.34MB Kongsberg multibeam vendor format
0531_20110630_045139_melville.all.mb58.gz 4.59MB Kongsberg multibeam vendor format
0532_20110630_052141_melville.all.mb58.gz 4.78MB Kongsberg multibeam vendor format
0533_20110630_055141_melville.all.mb58.gz 4.74MB Kongsberg multibeam vendor format
0534_20110630_062148_melville.all.mb58.gz 4.80MB Kongsberg multibeam vendor format
0535_20110630_065134_melville.all.mb58.gz 4.83MB Kongsberg multibeam vendor format
0536_20110630_072132_melville.all.mb58.gz 4.64MB Kongsberg multibeam vendor format
0537_20110630_075143_melville.all.mb58.gz 4.79MB Kongsberg multibeam vendor format
0538_20110630_082146_melville.all.mb58.gz 4.62MB Kongsberg multibeam vendor format
0539_20110630_085140_melville.all.mb58.gz 4.57MB Kongsberg multibeam vendor format
0540_20110630_092133_melville.all.mb58.gz 4.58MB Kongsberg multibeam vendor format
0541_20110630_095132_melville.all.mb58.gz 4.70MB Kongsberg multibeam vendor format
0542_20110630_102145_melville.all.mb58.gz 4.71MB Kongsberg multibeam vendor format
0543_20110630_105132_melville.all.mb58.gz 4.92MB Kongsberg multibeam vendor format
0544_20110630_112141_melville.all.mb58.gz 5.10MB Kongsberg multibeam vendor format
0545_20110630_115139_melville.all.mb58.gz 4.68MB Kongsberg multibeam vendor format
0546_20110630_122131_melville.all.mb58.gz 4.76MB Kongsberg multibeam vendor format
0547_20110630_125132_melville.all.mb58.gz 4.81MB Kongsberg multibeam vendor format
0548_20110630_132132_melville.all.mb58.gz 4.51MB Kongsberg multibeam vendor format
0549_20110630_135132_melville.all.mb58.gz 4.54MB Kongsberg multibeam vendor format
0550_20110630_142131_melville.all.mb58.gz 4.69MB Kongsberg multibeam vendor format
0551_20110630_145131_melville.all.mb58.gz 4.86MB Kongsberg multibeam vendor format
0552_20110630_152143_melville.all.mb58.gz 4.77MB Kongsberg multibeam vendor format
0553_20110630_155136_melville.all.mb58.gz 4.74MB Kongsberg multibeam vendor format
0554_20110630_162131_melville.all.mb58.gz 4.59MB Kongsberg multibeam vendor format
0555_20110630_165130_melville.all.mb58.gz 4.89MB Kongsberg multibeam vendor format
0556_20110630_172135_melville.all.mb58.gz 4.96MB Kongsberg multibeam vendor format
0557_20110630_175142_melville.all.mb58.gz 4.54MB Kongsberg multibeam vendor format
0558_20110630_182141_melville.all.mb58.gz 4.69MB Kongsberg multibeam vendor format
0559_20110630_185144_melville.all.mb58.gz 4.57MB Kongsberg multibeam vendor format
0560_20110630_192135_melville.all.mb58.gz 5.08MB Kongsberg multibeam vendor format
0561_20110630_195129_melville.all.mb58.gz 5.42MB Kongsberg multibeam vendor format
0562_20110630_202135_melville.all.mb58.gz 5.24MB Kongsberg multibeam vendor format
0563_20110630_205130_melville.all.mb58.gz 5.12MB Kongsberg multibeam vendor format
0564_20110630_212136_melville.all.mb58.gz 5.38MB Kongsberg multibeam vendor format
0565_20110630_215127_melville.all.mb58.gz 5.22MB Kongsberg multibeam vendor format
0566_20110630_222138_melville.all.mb58.gz 5.16MB Kongsberg multibeam vendor format
0567_20110630_225137_melville.all.mb58.gz 5.33MB Kongsberg multibeam vendor format
0568_20110630_232134_melville.all.mb58.gz 5.12MB Kongsberg multibeam vendor format
0569_20110630_235141_melville.all.mb58.gz 4.76MB Kongsberg multibeam vendor format
0570_20110701_002137_melville.all.mb58.gz 4.50MB Kongsberg multibeam vendor format
0571_20110701_005139_melville.all.mb58.gz 4.70MB Kongsberg multibeam vendor format
0572_20110701_012134_melville.all.mb58.gz 4.86MB Kongsberg multibeam vendor format
0573_20110701_015139_melville.all.mb58.gz 4.94MB Kongsberg multibeam vendor format
0574_20110701_022142_melville.all.mb58.gz 5.04MB Kongsberg multibeam vendor format
0575_20110701_025131_melville.all.mb58.gz 4.97MB Kongsberg multibeam vendor format
0576_20110701_032141_melville.all.mb58.gz 5.28MB Kongsberg multibeam vendor format
0577_20110701_035134_melville.all.mb58.gz 5.10MB Kongsberg multibeam vendor format
0578_20110701_042137_melville.all.mb58.gz 4.87MB Kongsberg multibeam vendor format
0579_20110701_045136_melville.all.mb58.gz 1.80MB Kongsberg multibeam vendor format
0580_20110701_052132_melville.all.mb58.gz 4.75MB Kongsberg multibeam vendor format
0581_20110701_055129_melville.all.mb58.gz 5.21MB Kongsberg multibeam vendor format
0582_20110701_062133_melville.all.mb58.gz 4.98MB Kongsberg multibeam vendor format
0583_20110701_065137_melville.all.mb58.gz 5.16MB Kongsberg multibeam vendor format
0584_20110701_072141_melville.all.mb58.gz 4.66MB Kongsberg multibeam vendor format
0585_20110701_075135_melville.all.mb58.gz 4.89MB Kongsberg multibeam vendor format
0586_20110701_082134_melville.all.mb58.gz 4.84MB Kongsberg multibeam vendor format
0587_20110701_085142_melville.all.mb58.gz 4.79MB Kongsberg multibeam vendor format
0588_20110701_092140_melville.all.mb58.gz 4.91MB Kongsberg multibeam vendor format
0589_20110701_095138_melville.all.mb58.gz 4.81MB Kongsberg multibeam vendor format
0590_20110701_102139_melville.all.mb58.gz 4.88MB Kongsberg multibeam vendor format
0591_20110701_105132_melville.all.mb58.gz 5.26MB Kongsberg multibeam vendor format
0592_20110701_112136_melville.all.mb58.gz 4.84MB Kongsberg multibeam vendor format
0593_20110701_115131_melville.all.mb58.gz 4.94MB Kongsberg multibeam vendor format
0594_20110701_122137_melville.all.mb58.gz 4.64MB Kongsberg multibeam vendor format
0595_20110701_125129_melville.all.mb58.gz 5.30MB Kongsberg multibeam vendor format
0596_20110701_132133_melville.all.mb58.gz 5.25MB Kongsberg multibeam vendor format
0597_20110701_135132_melville.all.mb58.gz 5.36MB Kongsberg multibeam vendor format
0598_20110701_142130_melville.all.mb58.gz 4.84MB Kongsberg multibeam vendor format
0599_20110701_145133_melville.all.mb58.gz 5.25MB Kongsberg multibeam vendor format
0600_20110701_152126_melville.all.mb58.gz 5.06MB Kongsberg multibeam vendor format
0601_20110701_155126_melville.all.mb58.gz 5.29MB Kongsberg multibeam vendor format
0602_20110701_162133_melville.all.mb58.gz 5.36MB Kongsberg multibeam vendor format
0603_20110701_165137_melville.all.mb58.gz 5.06MB Kongsberg multibeam vendor format
0604_20110701_172137_melville.all.mb58.gz 4.98MB Kongsberg multibeam vendor format
0605_20110701_175131_melville.all.mb58.gz 4.94MB Kongsberg multibeam vendor format
0606_20110701_182132_melville.all.mb58.gz 5.01MB Kongsberg multibeam vendor format
0607_20110701_185126_melville.all.mb58.gz 4.89MB Kongsberg multibeam vendor format
0608_20110701_192134_melville.all.mb58.gz 5.27MB Kongsberg multibeam vendor format
0609_20110701_195126_melville.all.mb58.gz 5.28MB Kongsberg multibeam vendor format
0610_20110701_202126_melville.all.mb58.gz 5.31MB Kongsberg multibeam vendor format
0611_20110701_205135_melville.all.mb58.gz 5.21MB Kongsberg multibeam vendor format
0612_20110701_212134_melville.all.mb58.gz 5.12MB Kongsberg multibeam vendor format
0613_20110701_215124_melville.all.mb58.gz 5.26MB Kongsberg multibeam vendor format
0614_20110701_222128_melville.all.mb58.gz 5.28MB Kongsberg multibeam vendor format
0615_20110701_225131_melville.all.mb58.gz 5.14MB Kongsberg multibeam vendor format
0616_20110701_232132_melville.all.mb58.gz 4.94MB Kongsberg multibeam vendor format
0617_20110701_235125_melville.all.mb58.gz 4.56MB Kongsberg multibeam vendor format
0618_20110702_002140_melville.all.mb58.gz 4.54MB Kongsberg multibeam vendor format
0619_20110702_005134_melville.all.mb58.gz 4.86MB Kongsberg multibeam vendor format
0620_20110702_012131_melville.all.mb58.gz 4.89MB Kongsberg multibeam vendor format
0621_20110702_015130_melville.all.mb58.gz 5.33MB Kongsberg multibeam vendor format
0622_20110702_022132_melville.all.mb58.gz 5.07MB Kongsberg multibeam vendor format
0623_20110702_025125_melville.all.mb58.gz 4.96MB Kongsberg multibeam vendor format
0624_20110702_032130_melville.all.mb58.gz 4.99MB Kongsberg multibeam vendor format
0625_20110702_035125_melville.all.mb58.gz 5.11MB Kongsberg multibeam vendor format
0626_20110702_042123_melville.all.mb58.gz 4.91MB Kongsberg multibeam vendor format
0627_20110702_045139_melville.all.mb58.gz 5.38MB Kongsberg multibeam vendor format
0628_20110702_052135_melville.all.mb58.gz 5.31MB Kongsberg multibeam vendor format
0629_20110702_055125_melville.all.mb58.gz 5.24MB Kongsberg multibeam vendor format
0630_20110702_062125_melville.all.mb58.gz 5.40MB Kongsberg multibeam vendor format
0631_20110702_065134_melville.all.mb58.gz 5.36MB Kongsberg multibeam vendor format
0632_20110702_072137_melville.all.mb58.gz 4.96MB Kongsberg multibeam vendor format
0633_20110702_075122_melville.all.mb58.gz 5.00MB Kongsberg multibeam vendor format
0634_20110702_082127_melville.all.mb58.gz 5.15MB Kongsberg multibeam vendor format
0635_20110702_085130_melville.all.mb58.gz 5.25MB Kongsberg multibeam vendor format
0636_20110702_092122_melville.all.mb58.gz 4.85MB Kongsberg multibeam vendor format
0637_20110702_095139_melville.all.mb58.gz 4.45MB Kongsberg multibeam vendor format
0638_20110702_102124_melville.all.mb58.gz 4.69MB Kongsberg multibeam vendor format
0639_20110702_105125_melville.all.mb58.gz 5.01MB Kongsberg multibeam vendor format
0640_20110702_112130_melville.all.mb58.gz 4.96MB Kongsberg multibeam vendor format
0641_20110702_115125_melville.all.mb58.gz 4.91MB Kongsberg multibeam vendor format
0642_20110702_122131_melville.all.mb58.gz 5.36MB Kongsberg multibeam vendor format
0643_20110702_125134_melville.all.mb58.gz 5.20MB Kongsberg multibeam vendor format
0644_20110702_132136_melville.all.mb58.gz 5.11MB Kongsberg multibeam vendor format
0645_20110702_135135_melville.all.mb58.gz 4.94MB Kongsberg multibeam vendor format
0646_20110702_142132_melville.all.mb58.gz 4.92MB Kongsberg multibeam vendor format
0647_20110702_145136_melville.all.mb58.gz 4.86MB Kongsberg multibeam vendor format
0648_20110702_152136_melville.all.mb58.gz 4.71MB Kongsberg multibeam vendor format
0649_20110702_155132_melville.all.mb58.gz 4.73MB Kongsberg multibeam vendor format
0650_20110702_162124_melville.all.mb58.gz 4.73MB Kongsberg multibeam vendor format
0651_20110702_165127_melville.all.mb58.gz 5.08MB Kongsberg multibeam vendor format
0652_20110702_172131_melville.all.mb58.gz 5.21MB Kongsberg multibeam vendor format
0653_20110702_175129_melville.all.mb58.gz 5.16MB Kongsberg multibeam vendor format
0654_20110702_182134_melville.all.mb58.gz 5.18MB Kongsberg multibeam vendor format
0655_20110702_185137_melville.all.mb58.gz 4.97MB Kongsberg multibeam vendor format
0656_20110702_192129_melville.all.mb58.gz 4.78MB Kongsberg multibeam vendor format
0657_20110702_195123_melville.all.mb58.gz 4.64MB Kongsberg multibeam vendor format
0658_20110702_202125_melville.all.mb58.gz 4.77MB Kongsberg multibeam vendor format
0659_20110702_205128_melville.all.mb58.gz 4.72MB Kongsberg multibeam vendor format
0660_20110702_212130_melville.all.mb58.gz 4.58MB Kongsberg multibeam vendor format
0661_20110702_215125_melville.all.mb58.gz 4.73MB Kongsberg multibeam vendor format
0662_20110702_222135_melville.all.mb58.gz 4.54MB Kongsberg multibeam vendor format
0663_20110702_225126_melville.all.mb58.gz 4.65MB Kongsberg multibeam vendor format
0664_20110702_232140_melville.all.mb58.gz 4.80MB Kongsberg multibeam vendor format
0665_20110702_235136_melville.all.mb58.gz 4.57MB Kongsberg multibeam vendor format
0666_20110703_002133_melville.all.mb58.gz 4.93MB Kongsberg multibeam vendor format
0667_20110703_005133_melville.all.mb58.gz 4.90MB Kongsberg multibeam vendor format
0668_20110703_012127_melville.all.mb58.gz 4.80MB Kongsberg multibeam vendor format
0669_20110703_015135_melville.all.mb58.gz 4.86MB Kongsberg multibeam vendor format
0670_20110703_022125_melville.all.mb58.gz 5.20MB Kongsberg multibeam vendor format
0671_20110703_025130_melville.all.mb58.gz 4.88MB Kongsberg multibeam vendor format
0672_20110703_032129_melville.all.mb58.gz 4.91MB Kongsberg multibeam vendor format
0673_20110703_035135_melville.all.mb58.gz 4.77MB Kongsberg multibeam vendor format
0674_20110703_042135_melville.all.mb58.gz 4.73MB Kongsberg multibeam vendor format
0675_20110703_045125_melville.all.mb58.gz 4.76MB Kongsberg multibeam vendor format
0676_20110703_052139_melville.all.mb58.gz 4.57MB Kongsberg multibeam vendor format
0677_20110703_055131_melville.all.mb58.gz 4.56MB Kongsberg multibeam vendor format
0678_20110703_062125_melville.all.mb58.gz 4.70MB Kongsberg multibeam vendor format
0679_20110703_065123_melville.all.mb58.gz 4.65MB Kongsberg multibeam vendor format
0680_20110703_072124_melville.all.mb58.gz 4.61MB Kongsberg multibeam vendor format
0681_20110703_075125_melville.all.mb58.gz 4.46MB Kongsberg multibeam vendor format
0682_20110703_082120_melville.all.mb58.gz 4.51MB Kongsberg multibeam vendor format
0683_20110703_085120_melville.all.mb58.gz 4.43MB Kongsberg multibeam vendor format
0684_20110703_092127_melville.all.mb58.gz 4.42MB Kongsberg multibeam vendor format
0685_20110703_095129_melville.all.mb58.gz 4.42MB Kongsberg multibeam vendor format
0686_20110703_102138_melville.all.mb58.gz 4.36MB Kongsberg multibeam vendor format
0687_20110703_105137_melville.all.mb58.gz 4.45MB Kongsberg multibeam vendor format
0688_20110703_112127_melville.all.mb58.gz 4.36MB Kongsberg multibeam vendor format
0689_20110703_115140_melville.all.mb58.gz 4.47MB Kongsberg multibeam vendor format
0690_20110703_122126_melville.all.mb58.gz 4.33MB Kongsberg multibeam vendor format
0691_20110703_125123_melville.all.mb58.gz 4.62MB Kongsberg multibeam vendor format
0692_20110703_132127_melville.all.mb58.gz 4.63MB Kongsberg multibeam vendor format
0693_20110703_135127_melville.all.mb58.gz 4.57MB Kongsberg multibeam vendor format
0694_20110703_142122_melville.all.mb58.gz 4.52MB Kongsberg multibeam vendor format
0695_20110703_145123_melville.all.mb58.gz 4.55MB Kongsberg multibeam vendor format
0696_20110703_152137_melville.all.mb58.gz 4.38MB Kongsberg multibeam vendor format
0697_20110703_155118_melville.all.mb58.gz 4.57MB Kongsberg multibeam vendor format
0698_20110703_162129_melville.all.mb58.gz 4.80MB Kongsberg multibeam vendor format
0699_20110703_165130_melville.all.mb58.gz 4.68MB Kongsberg multibeam vendor format
0700_20110703_172119_melville.all.mb58.gz 4.49MB Kongsberg multibeam vendor format
0701_20110703_175123_melville.all.mb58.gz 4.31MB Kongsberg multibeam vendor format
0702_20110703_182120_melville.all.mb58.gz 4.27MB Kongsberg multibeam vendor format
0703_20110703_185128_melville.all.mb58.gz 4.32MB Kongsberg multibeam vendor format
0704_20110703_192118_melville.all.mb58.gz 4.35MB Kongsberg multibeam vendor format
0705_20110703_195136_melville.all.mb58.gz 4.26MB Kongsberg multibeam vendor format
0706_20110703_202126_melville.all.mb58.gz 4.26MB Kongsberg multibeam vendor format
0707_20110703_205127_melville.all.mb58.gz 4.35MB Kongsberg multibeam vendor format
0708_20110703_212131_melville.all.mb58.gz 4.35MB Kongsberg multibeam vendor format
0709_20110703_215126_melville.all.mb58.gz 4.30MB Kongsberg multibeam vendor format
0710_20110703_222134_melville.all.mb58.gz 4.27MB Kongsberg multibeam vendor format
0711_20110703_225126_melville.all.mb58.gz 4.31MB Kongsberg multibeam vendor format
0712_20110703_232117_melville.all.mb58.gz 4.48MB Kongsberg multibeam vendor format
0713_20110703_235129_melville.all.mb58.gz 4.54MB Kongsberg multibeam vendor format
0714_20110704_002128_melville.all.mb58.gz 4.69MB Kongsberg multibeam vendor format
0715_20110704_005121_melville.all.mb58.gz 4.93MB Kongsberg multibeam vendor format
0716_20110704_012128_melville.all.mb58.gz 7.47MB Kongsberg multibeam vendor format
0717_20110704_015126_melville.all.mb58.gz 9.35MB Kongsberg multibeam vendor format
0718_20110704_022119_melville.all.mb58.gz 9.41MB Kongsberg multibeam vendor format
0719_20110704_025124_melville.all.mb58.gz 9.60MB Kongsberg multibeam vendor format
0720_20110704_032118_melville.all.mb58.gz 13.80MB Kongsberg multibeam vendor format
0721_20110704_035121_melville.all.mb58.gz 12.66MB Kongsberg multibeam vendor format
0722_20110704_042116_melville.all.mb58.gz 9.84MB Kongsberg multibeam vendor format
0723_20110704_045116_melville.all.mb58.gz 9.48MB Kongsberg multibeam vendor format
0724_20110704_052117_melville.all.mb58.gz 8.92MB Kongsberg multibeam vendor format
0725_20110704_055119_melville.all.mb58.gz 5.38MB Kongsberg multibeam vendor format
0726_20110704_062121_melville.all.mb58.gz 5.42MB Kongsberg multibeam vendor format
0727_20110704_065125_melville.all.mb58.gz 5.16MB Kongsberg multibeam vendor format
0728_20110704_072116_melville.all.mb58.gz 5.03MB Kongsberg multibeam vendor format
0729_20110704_075134_melville.all.mb58.gz 4.55MB Kongsberg multibeam vendor format
0730_20110704_082131_melville.all.mb58.gz 4.45MB Kongsberg multibeam vendor format
0731_20110704_085115_melville.all.mb58.gz 4.43MB Kongsberg multibeam vendor format
0732_20110704_092119_melville.all.mb58.gz 4.51MB Kongsberg multibeam vendor format
0733_20110704_095132_melville.all.mb58.gz 4.30MB Kongsberg multibeam vendor format
0734_20110704_102124_melville.all.mb58.gz 4.33MB Kongsberg multibeam vendor format
0735_20110704_105116_melville.all.mb58.gz 4.40MB Kongsberg multibeam vendor format
0736_20110704_112119_melville.all.mb58.gz 4.41MB Kongsberg multibeam vendor format
0737_20110704_115120_melville.all.mb58.gz 4.39MB Kongsberg multibeam vendor format
0738_20110704_122131_melville.all.mb58.gz 4.58MB Kongsberg multibeam vendor format
0739_20110704_125133_melville.all.mb58.gz 4.58MB Kongsberg multibeam vendor format
0740_20110704_132121_melville.all.mb58.gz 4.67MB Kongsberg multibeam vendor format
0741_20110704_135127_melville.all.mb58.gz 4.74MB Kongsberg multibeam vendor format
0742_20110704_142126_melville.all.mb58.gz 7.96MB Kongsberg multibeam vendor format
0743_20110704_145126_melville.all.mb58.gz 8.83MB Kongsberg multibeam vendor format
0744_20110704_152123_melville.all.mb58.gz 9.33MB Kongsberg multibeam vendor format
0745_20110704_155116_melville.all.mb58.gz 9.31MB Kongsberg multibeam vendor format
0746_20110704_162116_melville.all.mb58.gz 9.16MB Kongsberg multibeam vendor format
0747_20110704_165120_melville.all.mb58.gz 10.98MB Kongsberg multibeam vendor format
0748_20110704_172123_melville.all.mb58.gz 8.26MB Kongsberg multibeam vendor format
0749_20110704_175127_melville.all.mb58.gz 4.75MB Kongsberg multibeam vendor format
0750_20110704_182118_melville.all.mb58.gz 4.84MB Kongsberg multibeam vendor format
0751_20110704_185126_melville.all.mb58.gz 4.67MB Kongsberg multibeam vendor format
0752_20110704_192133_melville.all.mb58.gz 4.61MB Kongsberg multibeam vendor format
0753_20110704_195132_melville.all.mb58.gz 4.46MB Kongsberg multibeam vendor format
0754_20110704_202114_melville.all.mb58.gz 4.53MB Kongsberg multibeam vendor format
0755_20110704_205131_melville.all.mb58.gz 4.49MB Kongsberg multibeam vendor format
0756_20110704_212130_melville.all.mb58.gz 4.44MB Kongsberg multibeam vendor format
0757_20110704_215117_melville.all.mb58.gz 4.43MB Kongsberg multibeam vendor format
0758_20110704_222120_melville.all.mb58.gz 4.41MB Kongsberg multibeam vendor format
0759_20110704_225116_melville.all.mb58.gz 4.44MB Kongsberg multibeam vendor format
0760_20110704_232118_melville.all.mb58.gz 4.34MB Kongsberg multibeam vendor format
0761_20110704_235116_melville.all.mb58.gz 4.50MB Kongsberg multibeam vendor format
0762_20110705_002130_melville.all.mb58.gz 4.49MB Kongsberg multibeam vendor format
0763_20110705_005113_melville.all.mb58.gz 4.75MB Kongsberg multibeam vendor format
0764_20110705_012114_melville.all.mb58.gz 4.46MB Kongsberg multibeam vendor format
0765_20110705_015120_melville.all.mb58.gz 4.66MB Kongsberg multibeam vendor format
0766_20110705_022119_melville.all.mb58.gz 9.20MB Kongsberg multibeam vendor format
0767_20110705_025116_melville.all.mb58.gz 11.32MB Kongsberg multibeam vendor format
0768_20110705_032116_melville.all.mb58.gz 13.70MB Kongsberg multibeam vendor format
0769_20110705_035119_melville.all.mb58.gz 14.51MB Kongsberg multibeam vendor format
0770_20110705_042118_melville.all.mb58.gz 13.63MB Kongsberg multibeam vendor format
0771_20110705_045120_melville.all.mb58.gz 9.80MB Kongsberg multibeam vendor format
0772_20110705_052123_melville.all.mb58.gz 5.14MB Kongsberg multibeam vendor format
0773_20110705_055122_melville.all.mb58.gz 4.66MB Kongsberg multibeam vendor format
0774_20110705_062128_melville.all.mb58.gz 4.53MB Kongsberg multibeam vendor format
0775_20110705_065128_melville.all.mb58.gz 4.69MB Kongsberg multibeam vendor format
0776_20110705_072127_melville.all.mb58.gz 4.68MB Kongsberg multibeam vendor format
0777_20110705_075128_melville.all.mb58.gz 4.50MB Kongsberg multibeam vendor format
0778_20110705_082115_melville.all.mb58.gz 4.56MB Kongsberg multibeam vendor format
0779_20110705_085127_melville.all.mb58.gz 4.50MB Kongsberg multibeam vendor format
0780_20110705_092118_melville.all.mb58.gz 4.48MB Kongsberg multibeam vendor format
0781_20110705_095124_melville.all.mb58.gz 4.38MB Kongsberg multibeam vendor format
0782_20110705_102113_melville.all.mb58.gz 4.49MB Kongsberg multibeam vendor format
0783_20110705_105125_melville.all.mb58.gz 4.56MB Kongsberg multibeam vendor format
0784_20110705_112120_melville.all.mb58.gz 4.29MB Kongsberg multibeam vendor format
0785_20110705_115126_melville.all.mb58.gz 4.33MB Kongsberg multibeam vendor format
0786_20110705_122112_melville.all.mb58.gz 4.51MB Kongsberg multibeam vendor format
0787_20110705_125127_melville.all.mb58.gz 4.49MB Kongsberg multibeam vendor format
0788_20110705_132126_melville.all.mb58.gz 4.31MB Kongsberg multibeam vendor format
0789_20110705_135120_melville.all.mb58.gz 4.18MB Kongsberg multibeam vendor format
0790_20110705_142119_melville.all.mb58.gz 4.26MB Kongsberg multibeam vendor format
0791_20110705_145120_melville.all.mb58.gz 4.33MB Kongsberg multibeam vendor format
0792_20110705_152125_melville.all.mb58.gz 4.31MB Kongsberg multibeam vendor format
0793_20110705_155121_melville.all.mb58.gz 4.19MB Kongsberg multibeam vendor format
0794_20110705_162126_melville.all.mb58.gz 4.40MB Kongsberg multibeam vendor format
0795_20110705_165129_melville.all.mb58.gz 4.41MB Kongsberg multibeam vendor format
0796_20110705_172128_melville.all.mb58.gz 4.25MB Kongsberg multibeam vendor format
0797_20110705_175122_melville.all.mb58.gz 4.28MB Kongsberg multibeam vendor format
0798_20110705_182116_melville.all.mb58.gz 4.18MB Kongsberg multibeam vendor format
0799_20110705_185123_melville.all.mb58.gz 4.29MB Kongsberg multibeam vendor format
0800_20110705_192117_melville.all.mb58.gz 4.23MB Kongsberg multibeam vendor format
0801_20110705_195116_melville.all.mb58.gz 4.22MB Kongsberg multibeam vendor format
0802_20110705_202112_melville.all.mb58.gz 4.19MB Kongsberg multibeam vendor format
0803_20110705_205116_melville.all.mb58.gz 4.29MB Kongsberg multibeam vendor format
0804_20110705_212110_melville.all.mb58.gz 4.27MB Kongsberg multibeam vendor format
0805_20110705_215123_melville.all.mb58.gz 4.68MB Kongsberg multibeam vendor format
0806_20110705_222123_melville.all.mb58.gz 3.93MB Kongsberg multibeam vendor format
0807_20110705_225113_melville.all.mb58.gz 3.71MB Kongsberg multibeam vendor format
0808_20110705_232129_melville.all.mb58.gz 3.75MB Kongsberg multibeam vendor format
0809_20110705_235124_melville.all.mb58.gz 4.01MB Kongsberg multibeam vendor format
0810_20110706_002121_melville.all.mb58.gz 4.38MB Kongsberg multibeam vendor format
0811_20110706_005127_melville.all.mb58.gz 4.29MB Kongsberg multibeam vendor format
0812_20110706_012118_melville.all.mb58.gz 4.16MB Kongsberg multibeam vendor format
0813_20110706_015130_melville.all.mb58.gz 4.37MB Kongsberg multibeam vendor format
0814_20110706_022116_melville.all.mb58.gz 4.37MB Kongsberg multibeam vendor format
0815_20110706_025122_melville.all.mb58.gz 4.20MB Kongsberg multibeam vendor format
0816_20110706_032122_melville.all.mb58.gz 4.26MB Kongsberg multibeam vendor format
0817_20110706_035129_melville.all.mb58.gz 4.18MB Kongsberg multibeam vendor format
0818_20110706_042110_melville.all.mb58.gz 4.53MB Kongsberg multibeam vendor format
0819_20110706_045121_melville.all.mb58.gz 4.52MB Kongsberg multibeam vendor format
0820_20110706_052126_melville.all.mb58.gz 5.02MB Kongsberg multibeam vendor format
0821_20110706_055120_melville.all.mb58.gz 4.60MB Kongsberg multibeam vendor format
0822_20110706_062114_melville.all.mb58.gz 4.52MB Kongsberg multibeam vendor format
0823_20110706_065110_melville.all.mb58.gz 4.37MB Kongsberg multibeam vendor format
0824_20110706_072110_melville.all.mb58.gz 4.58MB Kongsberg multibeam vendor format
0825_20110706_075120_melville.all.mb58.gz 4.69MB Kongsberg multibeam vendor format
0826_20110706_082123_melville.all.mb58.gz 4.89MB Kongsberg multibeam vendor format
0827_20110706_085116_melville.all.mb58.gz 6.81MB Kongsberg multibeam vendor format
0828_20110706_092122_melville.all.mb58.gz 5.82MB Kongsberg multibeam vendor format
0829_20110706_095125_melville.all.mb58.gz 4.56MB Kongsberg multibeam vendor format
0830_20110706_102127_melville.all.mb58.gz 4.40MB Kongsberg multibeam vendor format
0831_20110706_105118_melville.all.mb58.gz 4.50MB Kongsberg multibeam vendor format
0832_20110706_112126_melville.all.mb58.gz 4.42MB Kongsberg multibeam vendor format
0833_20110706_115109_melville.all.mb58.gz 4.39MB Kongsberg multibeam vendor format
0834_20110706_122126_melville.all.mb58.gz 4.23MB Kongsberg multibeam vendor format
0835_20110706_125123_melville.all.mb58.gz 4.12MB Kongsberg multibeam vendor format
0836_20110706_132120_melville.all.mb58.gz 4.17MB Kongsberg multibeam vendor format
0837_20110706_135118_melville.all.mb58.gz 4.16MB Kongsberg multibeam vendor format
0838_20110706_142119_melville.all.mb58.gz 4.21MB Kongsberg multibeam vendor format
0839_20110706_145126_melville.all.mb58.gz 4.20MB Kongsberg multibeam vendor format
0840_20110706_152126_melville.all.mb58.gz 4.15MB Kongsberg multibeam vendor format
0841_20110706_155110_melville.all.mb58.gz 4.06MB Kongsberg multibeam vendor format
0842_20110706_162130_melville.all.mb58.gz 4.16MB Kongsberg multibeam vendor format
0843_20110706_165114_melville.all.mb58.gz 4.30MB Kongsberg multibeam vendor format
0844_20110706_172111_melville.all.mb58.gz 7.49MB Kongsberg multibeam vendor format
0845_20110706_175116_melville.all.mb58.gz 9.53MB Kongsberg multibeam vendor format
0846_20110706_182120_melville.all.mb58.gz 4.81MB Kongsberg multibeam vendor format
0847_20110706_185109_melville.all.mb58.gz 4.50MB Kongsberg multibeam vendor format
0848_20110706_192107_melville.all.mb58.gz 4.41MB Kongsberg multibeam vendor format
0849_20110706_195110_melville.all.mb58.gz 4.04MB Kongsberg multibeam vendor format
0850_20110706_202114_melville.all.mb58.gz 4.10MB Kongsberg multibeam vendor format
0851_20110706_205108_melville.all.mb58.gz 3.88MB Kongsberg multibeam vendor format
0852_20110706_212109_melville.all.mb58.gz 4.24MB Kongsberg multibeam vendor format
0853_20110706_215111_melville.all.mb58.gz 4.45MB Kongsberg multibeam vendor format
0854_20110706_222111_melville.all.mb58.gz 4.41MB Kongsberg multibeam vendor format
0855_20110706_225118_melville.all.mb58.gz 4.21MB Kongsberg multibeam vendor format
0856_20110706_232109_melville.all.mb58.gz 4.15MB Kongsberg multibeam vendor format
0857_20110706_235116_melville.all.mb58.gz 4.32MB Kongsberg multibeam vendor format
0858_20110707_002114_melville.all.mb58.gz 4.63MB Kongsberg multibeam vendor format
0859_20110707_005117_melville.all.mb58.gz 4.51MB Kongsberg multibeam vendor format
0860_20110707_012119_melville.all.mb58.gz 4.37MB Kongsberg multibeam vendor format
0861_20110707_015108_melville.all.mb58.gz 4.45MB Kongsberg multibeam vendor format
0862_20110707_022115_melville.all.mb58.gz 4.44MB Kongsberg multibeam vendor format
0863_20110707_025118_melville.all.mb58.gz 4.34MB Kongsberg multibeam vendor format
0864_20110707_032120_melville.all.mb58.gz 4.26MB Kongsberg multibeam vendor format
0865_20110707_035112_melville.all.mb58.gz 4.33MB Kongsberg multibeam vendor format
0866_20110707_042119_melville.all.mb58.gz 4.25MB Kongsberg multibeam vendor format
0867_20110707_045111_melville.all.mb58.gz 4.35MB Kongsberg multibeam vendor format
0868_20110707_052112_melville.all.mb58.gz 4.53MB Kongsberg multibeam vendor format
0869_20110707_055108_melville.all.mb58.gz 4.44MB Kongsberg multibeam vendor format
0870_20110707_062125_melville.all.mb58.gz 4.56MB Kongsberg multibeam vendor format
0871_20110707_065111_melville.all.mb58.gz 4.60MB Kongsberg multibeam vendor format
0872_20110707_072115_melville.all.mb58.gz 4.32MB Kongsberg multibeam vendor format
0873_20110707_075117_melville.all.mb58.gz 4.62MB Kongsberg multibeam vendor format
0874_20110707_082119_melville.all.mb58.gz 4.66MB Kongsberg multibeam vendor format
0875_20110707_085108_melville.all.mb58.gz 4.73MB Kongsberg multibeam vendor format
0876_20110707_092117_melville.all.mb58.gz 4.71MB Kongsberg multibeam vendor format
0877_20110707_095105_melville.all.mb58.gz 4.48MB Kongsberg multibeam vendor format
0878_20110707_102106_melville.all.mb58.gz 4.49MB Kongsberg multibeam vendor format
0879_20110707_105120_melville.all.mb58.gz 4.54MB Kongsberg multibeam vendor format
0880_20110707_112122_melville.all.mb58.gz 4.41MB Kongsberg multibeam vendor format
0881_20110707_115111_melville.all.mb58.gz 4.39MB Kongsberg multibeam vendor format
0882_20110707_122110_melville.all.mb58.gz 4.34MB Kongsberg multibeam vendor format
0883_20110707_125117_melville.all.mb58.gz 4.49MB Kongsberg multibeam vendor format
0884_20110707_132123_melville.all.mb58.gz 4.31MB Kongsberg multibeam vendor format
0885_20110707_135120_melville.all.mb58.gz 4.64MB Kongsberg multibeam vendor format
0886_20110707_142114_melville.all.mb58.gz 3.49MB Kongsberg multibeam vendor format
0887_20110707_145117_melville.all.mb58.gz 4.65MB Kongsberg multibeam vendor format
0888_20110707_152108_melville.all.mb58.gz 4.38MB Kongsberg multibeam vendor format
0889_20110707_155111_melville.all.mb58.gz 4.18MB Kongsberg multibeam vendor format
0890_20110707_162109_melville.all.mb58.gz 4.65MB Kongsberg multibeam vendor format
0891_20110707_165113_melville.all.mb58.gz 4.57MB Kongsberg multibeam vendor format
0892_20110707_172120_melville.all.mb58.gz 4.37MB Kongsberg multibeam vendor format
0893_20110707_175111_melville.all.mb58.gz 4.51MB Kongsberg multibeam vendor format
0894_20110707_182104_melville.all.mb58.gz 4.47MB Kongsberg multibeam vendor format
0895_20110707_185120_melville.all.mb58.gz 4.16MB Kongsberg multibeam vendor format
0896_20110707_192107_melville.all.mb58.gz 4.40MB Kongsberg multibeam vendor format
0897_20110707_195110_melville.all.mb58.gz 4.35MB Kongsberg multibeam vendor format
0898_20110707_202122_melville.all.mb58.gz 4.13MB Kongsberg multibeam vendor format
0899_20110707_205119_melville.all.mb58.gz 4.44MB Kongsberg multibeam vendor format
0900_20110707_212116_melville.all.mb58.gz 4.78MB Kongsberg multibeam vendor format
0901_20110707_215114_melville.all.mb58.gz 4.33MB Kongsberg multibeam vendor format
0902_20110707_222124_melville.all.mb58.gz 4.46MB Kongsberg multibeam vendor format
0903_20110707_225106_melville.all.mb58.gz 4.64MB Kongsberg multibeam vendor format
0904_20110707_232119_melville.all.mb58.gz 4.40MB Kongsberg multibeam vendor format
0905_20110707_235115_melville.all.mb58.gz 4.32MB Kongsberg multibeam vendor format
0906_20110708_002109_melville.all.mb58.gz 4.41MB Kongsberg multibeam vendor format
0907_20110708_005115_melville.all.mb58.gz 4.22MB Kongsberg multibeam vendor format
0908_20110708_012124_melville.all.mb58.gz 4.32MB Kongsberg multibeam vendor format
0909_20110708_015120_melville.all.mb58.gz 4.41MB Kongsberg multibeam vendor format
0910_20110708_022110_melville.all.mb58.gz 4.42MB Kongsberg multibeam vendor format
0911_20110708_025110_melville.all.mb58.gz 4.30MB Kongsberg multibeam vendor format
0912_20110708_032117_melville.all.mb58.gz 4.18MB Kongsberg multibeam vendor format
0913_20110708_035108_melville.all.mb58.gz 4.41MB Kongsberg multibeam vendor format
0914_20110708_042108_melville.all.mb58.gz 4.31MB Kongsberg multibeam vendor format
0915_20110708_045116_melville.all.mb58.gz 4.39MB Kongsberg multibeam vendor format
0916_20110708_052109_melville.all.mb58.gz 4.22MB Kongsberg multibeam vendor format
0917_20110708_055109_melville.all.mb58.gz 4.26MB Kongsberg multibeam vendor format
0918_20110708_062113_melville.all.mb58.gz 4.35MB Kongsberg multibeam vendor format
0919_20110708_065106_melville.all.mb58.gz 4.40MB Kongsberg multibeam vendor format
0920_20110708_072113_melville.all.mb58.gz 4.34MB Kongsberg multibeam vendor format
0921_20110708_075122_melville.all.mb58.gz 4.31MB Kongsberg multibeam vendor format
0922_20110708_082102_melville.all.mb58.gz 4.53MB Kongsberg multibeam vendor format
0923_20110708_085120_melville.all.mb58.gz 4.56MB Kongsberg multibeam vendor format
0924_20110708_092113_melville.all.mb58.gz 4.49MB Kongsberg multibeam vendor format
0925_20110708_095114_melville.all.mb58.gz 4.45MB Kongsberg multibeam vendor format
0926_20110708_102111_melville.all.mb58.gz 4.52MB Kongsberg multibeam vendor format
0927_20110708_105105_melville.all.mb58.gz 4.65MB Kongsberg multibeam vendor format
0928_20110708_112104_melville.all.mb58.gz 4.52MB Kongsberg multibeam vendor format
0929_20110708_115102_melville.all.mb58.gz 4.47MB Kongsberg multibeam vendor format
0930_20110708_122121_melville.all.mb58.gz 4.66MB Kongsberg multibeam vendor format
0931_20110708_125112_melville.all.mb58.gz 4.38MB Kongsberg multibeam vendor format
0932_20110708_132104_melville.all.mb58.gz 4.42MB Kongsberg multibeam vendor format
0933_20110708_135105_melville.all.mb58.gz 4.67MB Kongsberg multibeam vendor format
0934_20110708_142113_melville.all.mb58.gz 4.63MB Kongsberg multibeam vendor format
0935_20110708_145116_melville.all.mb58.gz 4.44MB Kongsberg multibeam vendor format
0936_20110708_152108_melville.all.mb58.gz 4.49MB Kongsberg multibeam vendor format
0937_20110708_155120_melville.all.mb58.gz 4.64MB Kongsberg multibeam vendor format
0938_20110708_162117_melville.all.mb58.gz 4.50MB Kongsberg multibeam vendor format
0939_20110708_165117_melville.all.mb58.gz 4.56MB Kongsberg multibeam vendor format
0940_20110708_172109_melville.all.mb58.gz 4.45MB Kongsberg multibeam vendor format
0941_20110708_175116_melville.all.mb58.gz 4.53MB Kongsberg multibeam vendor format
0942_20110708_182114_melville.all.mb58.gz 4.49MB Kongsberg multibeam vendor format
0943_20110708_185108_melville.all.mb58.gz 4.66MB Kongsberg multibeam vendor format
0944_20110708_192116_melville.all.mb58.gz 4.54MB Kongsberg multibeam vendor format
0945_20110708_195110_melville.all.mb58.gz 4.49MB Kongsberg multibeam vendor format
0946_20110708_202119_melville.all.mb58.gz 4.69MB Kongsberg multibeam vendor format
0947_20110708_205115_melville.all.mb58.gz 4.58MB Kongsberg multibeam vendor format
0948_20110708_212111_melville.all.mb58.gz 4.70MB Kongsberg multibeam vendor format
0949_20110708_215109_melville.all.mb58.gz 4.64MB Kongsberg multibeam vendor format
0950_20110708_222106_melville.all.mb58.gz 4.92MB Kongsberg multibeam vendor format
0951_20110708_225111_melville.all.mb58.gz 5.06MB Kongsberg multibeam vendor format
0952_20110708_232103_melville.all.mb58.gz 5.16MB Kongsberg multibeam vendor format
0953_20110708_235111_melville.all.mb58.gz 4.94MB Kongsberg multibeam vendor format
0954_20110709_002104_melville.all.mb58.gz 4.39MB Kongsberg multibeam vendor format
0955_20110709_005104_melville.all.mb58.gz 4.25MB Kongsberg multibeam vendor format
0956_20110709_012116_melville.all.mb58.gz 4.47MB Kongsberg multibeam vendor format
0957_20110709_015108_melville.all.mb58.gz 4.53MB Kongsberg multibeam vendor format
0958_20110709_022117_melville.all.mb58.gz 4.49MB Kongsberg multibeam vendor format
0959_20110709_025113_melville.all.mb58.gz 4.45MB Kongsberg multibeam vendor format
0960_20110709_032106_melville.all.mb58.gz 4.49MB Kongsberg multibeam vendor format
0961_20110709_035100_melville.all.mb58.gz 4.34MB Kongsberg multibeam vendor format
0962_20110709_042104_melville.all.mb58.gz 4.41MB Kongsberg multibeam vendor format
0963_20110709_045112_melville.all.mb58.gz 4.69MB Kongsberg multibeam vendor format
0964_20110709_052104_melville.all.mb58.gz 4.39MB Kongsberg multibeam vendor format
0965_20110709_055107_melville.all.mb58.gz 4.52MB Kongsberg multibeam vendor format
0966_20110709_062113_melville.all.mb58.gz 4.59MB Kongsberg multibeam vendor format
0967_20110709_065108_melville.all.mb58.gz 4.47MB Kongsberg multibeam vendor format
0968_20110709_072100_melville.all.mb58.gz 4.59MB Kongsberg multibeam vendor format
0969_20110709_075102_melville.all.mb58.gz 4.65MB Kongsberg multibeam vendor format
0970_20110709_082112_melville.all.mb58.gz 4.72MB Kongsberg multibeam vendor format
0971_20110709_085104_melville.all.mb58.gz 4.77MB Kongsberg multibeam vendor format
0972_20110709_092105_melville.all.mb58.gz 4.32MB Kongsberg multibeam vendor format
0973_20110709_095100_melville.all.mb58.gz 4.41MB Kongsberg multibeam vendor format
0974_20110709_102111_melville.all.mb58.gz 4.39MB Kongsberg multibeam vendor format
0975_20110709_105108_melville.all.mb58.gz 4.59MB Kongsberg multibeam vendor format
0976_20110709_112101_melville.all.mb58.gz 4.63MB Kongsberg multibeam vendor format
0977_20110709_115102_melville.all.mb58.gz 4.73MB Kongsberg multibeam vendor format
0978_20110709_122114_melville.all.mb58.gz 4.65MB Kongsberg multibeam vendor format
0979_20110709_125117_melville.all.mb58.gz 4.68MB Kongsberg multibeam vendor format
0980_20110709_132105_melville.all.mb58.gz 4.58MB Kongsberg multibeam vendor format
0981_20110709_135101_melville.all.mb58.gz 4.61MB Kongsberg multibeam vendor format
0982_20110709_142113_melville.all.mb58.gz 4.47MB Kongsberg multibeam vendor format
0983_20110709_145102_melville.all.mb58.gz 4.51MB Kongsberg multibeam vendor format
0984_20110709_152120_melville.all.mb58.gz 4.57MB Kongsberg multibeam vendor format
0985_20110709_155102_melville.all.mb58.gz 4.59MB Kongsberg multibeam vendor format
0986_20110709_162102_melville.all.mb58.gz 4.68MB Kongsberg multibeam vendor format
0987_20110709_165101_melville.all.mb58.gz 4.46MB Kongsberg multibeam vendor format
0988_20110709_172115_melville.all.mb58.gz 4.60MB Kongsberg multibeam vendor format
0989_20110709_175113_melville.all.mb58.gz 1.08MB Kongsberg multibeam vendor format
0989_20110709_180556_melville.all.mb58.gz 4.52MB Kongsberg multibeam vendor format
0990_20110709_183601_melville.all.mb58.gz 4.58MB Kongsberg multibeam vendor format
0991_20110709_190606_melville.all.mb58.gz 4.70MB Kongsberg multibeam vendor format
0992_20110709_193601_melville.all.mb58.gz 4.61MB Kongsberg multibeam vendor format
0993_20110709_200601_melville.all.mb58.gz 4.80MB Kongsberg multibeam vendor format
0994_20110709_203609_melville.all.mb58.gz 4.78MB Kongsberg multibeam vendor format
0995_20110709_210609_melville.all.mb58.gz 4.94MB Kongsberg multibeam vendor format
0996_20110709_213611_melville.all.mb58.gz 4.78MB Kongsberg multibeam vendor format
0997_20110709_220605_melville.all.mb58.gz 4.92MB Kongsberg multibeam vendor format
0998_20110709_223608_melville.all.mb58.gz 4.80MB Kongsberg multibeam vendor format
0999_20110709_230600_melville.all.mb58.gz 4.89MB Kongsberg multibeam vendor format
1000_20110709_233609_melville.all.mb58.gz 4.68MB Kongsberg multibeam vendor format
1001_20110710_000600_melville.all.mb58.gz 4.58MB Kongsberg multibeam vendor format
1002_20110710_003559_melville.all.mb58.gz 4.75MB Kongsberg multibeam vendor format
1003_20110710_010607_melville.all.mb58.gz 4.63MB Kongsberg multibeam vendor format
1004_20110710_013603_melville.all.mb58.gz 4.80MB Kongsberg multibeam vendor format
1005_20110710_020608_melville.all.mb58.gz 4.69MB Kongsberg multibeam vendor format
1006_20110710_023611_melville.all.mb58.gz 4.63MB Kongsberg multibeam vendor format
1007_20110710_030605_melville.all.mb58.gz 4.60MB Kongsberg multibeam vendor format
1008_20110710_033602_melville.all.mb58.gz 4.69MB Kongsberg multibeam vendor format
1009_20110710_040601_melville.all.mb58.gz 5.20MB Kongsberg multibeam vendor format
1010_20110710_043601_melville.all.mb58.gz 5.06MB Kongsberg multibeam vendor format
1011_20110710_050613_melville.all.mb58.gz 4.99MB Kongsberg multibeam vendor format
1012_20110710_053609_melville.all.mb58.gz 5.12MB Kongsberg multibeam vendor format
1013_20110710_060608_melville.all.mb58.gz 5.37MB Kongsberg multibeam vendor format
1014_20110710_063608_melville.all.mb58.gz 5.21MB Kongsberg multibeam vendor format
1015_20110710_070601_melville.all.mb58.gz 4.85MB Kongsberg multibeam vendor format
1016_20110710_073608_melville.all.mb58.gz 4.91MB Kongsberg multibeam vendor format
1017_20110710_080604_melville.all.mb58.gz 4.78MB Kongsberg multibeam vendor format
1018_20110710_083557_melville.all.mb58.gz 4.78MB Kongsberg multibeam vendor format
1019_20110710_090604_melville.all.mb58.gz 4.79MB Kongsberg multibeam vendor format
1020_20110710_093605_melville.all.mb58.gz 4.79MB Kongsberg multibeam vendor format
1021_20110710_100600_melville.all.mb58.gz 4.80MB Kongsberg multibeam vendor format
1022_20110710_103605_melville.all.mb58.gz 4.76MB Kongsberg multibeam vendor format
1023_20110710_110600_melville.all.mb58.gz 4.76MB Kongsberg multibeam vendor format
1024_20110710_113609_melville.all.mb58.gz 4.71MB Kongsberg multibeam vendor format
1025_20110710_120600_melville.all.mb58.gz 4.77MB Kongsberg multibeam vendor format
1026_20110710_123612_melville.all.mb58.gz 4.82MB Kongsberg multibeam vendor format
1027_20110710_130610_melville.all.mb58.gz 4.69MB Kongsberg multibeam vendor format
1028_20110710_133611_melville.all.mb58.gz 4.84MB Kongsberg multibeam vendor format
1029_20110710_140601_melville.all.mb58.gz 4.95MB Kongsberg multibeam vendor format
1030_20110710_143603_melville.all.mb58.gz 4.99MB Kongsberg multibeam vendor format
1031_20110710_150604_melville.all.mb58.gz 3.60MB Kongsberg multibeam vendor format
1032_20110710_153601_melville.all.mb58.gz 5.19MB Kongsberg multibeam vendor format
1033_20110710_160608_melville.all.mb58.gz 4.86MB Kongsberg multibeam vendor format
1034_20110710_163608_melville.all.mb58.gz 5.01MB Kongsberg multibeam vendor format
1035_20110710_170609_melville.all.mb58.gz 5.03MB Kongsberg multibeam vendor format
1036_20110710_173609_melville.all.mb58.gz 4.66MB Kongsberg multibeam vendor format
1037_20110710_180558_melville.all.mb58.gz 4.73MB Kongsberg multibeam vendor format
1038_20110710_183559_melville.all.mb58.gz 4.92MB Kongsberg multibeam vendor format
1039_20110710_190608_melville.all.mb58.gz 4.98MB Kongsberg multibeam vendor format
1040_20110710_193558_melville.all.mb58.gz 5.24MB Kongsberg multibeam vendor format
1041_20110710_200600_melville.all.mb58.gz 4.80MB Kongsberg multibeam vendor format
1042_20110710_203609_melville.all.mb58.gz 4.79MB Kongsberg multibeam vendor format
1043_20110710_210602_melville.all.mb58.gz 5.19MB Kongsberg multibeam vendor format
1044_20110710_213558_melville.all.mb58.gz 5.15MB Kongsberg multibeam vendor format
1045_20110710_220608_melville.all.mb58.gz 5.14MB Kongsberg multibeam vendor format
1046_20110710_223605_melville.all.mb58.gz 4.84MB Kongsberg multibeam vendor format
1047_20110710_230559_melville.all.mb58.gz 5.11MB Kongsberg multibeam vendor format
1048_20110710_233607_melville.all.mb58.gz 4.95MB Kongsberg multibeam vendor format
1049_20110711_000557_melville.all.mb58.gz 4.54MB Kongsberg multibeam vendor format
1050_20110711_003603_melville.all.mb58.gz 4.44MB Kongsberg multibeam vendor format
1051_20110711_010601_melville.all.mb58.gz 4.77MB Kongsberg multibeam vendor format
1052_20110711_013605_melville.all.mb58.gz 4.64MB Kongsberg multibeam vendor format
1053_20110711_020611_melville.all.mb58.gz 4.48MB Kongsberg multibeam vendor format
1054_20110711_023556_melville.all.mb58.gz 4.61MB Kongsberg multibeam vendor format
1055_20110711_030559_melville.all.mb58.gz 5.00MB Kongsberg multibeam vendor format
1056_20110711_033605_melville.all.mb58.gz 4.89MB Kongsberg multibeam vendor format
1057_20110711_040606_melville.all.mb58.gz 4.99MB Kongsberg multibeam vendor format
1058_20110711_043607_melville.all.mb58.gz 4.62MB Kongsberg multibeam vendor format
1059_20110711_050610_melville.all.mb58.gz 4.83MB Kongsberg multibeam vendor format
1060_20110711_053605_melville.all.mb58.gz 5.03MB Kongsberg multibeam vendor format
1061_20110711_060605_melville.all.mb58.gz 5.18MB Kongsberg multibeam vendor format
1062_20110711_063559_melville.all.mb58.gz 5.01MB Kongsberg multibeam vendor format
1063_20110711_070559_melville.all.mb58.gz 4.68MB Kongsberg multibeam vendor format
1064_20110711_073559_melville.all.mb58.gz 4.88MB Kongsberg multibeam vendor format
1065_20110711_080600_melville.all.mb58.gz 4.88MB Kongsberg multibeam vendor format
1066_20110711_083611_melville.all.mb58.gz 4.81MB Kongsberg multibeam vendor format
1067_20110711_090609_melville.all.mb58.gz 4.81MB Kongsberg multibeam vendor format
1068_20110711_093609_melville.all.mb58.gz 4.49MB Kongsberg multibeam vendor format
1069_20110711_100600_melville.all.mb58.gz 4.60MB Kongsberg multibeam vendor format
1070_20110711_103601_melville.all.mb58.gz 4.68MB Kongsberg multibeam vendor format
1071_20110711_110603_melville.all.mb58.gz 4.76MB Kongsberg multibeam vendor format
1072_20110711_113608_melville.all.mb58.gz 5.08MB Kongsberg multibeam vendor format
1073_20110711_120555_melville.all.mb58.gz 4.50MB Kongsberg multibeam vendor format
1074_20110711_123611_melville.all.mb58.gz 4.61MB Kongsberg multibeam vendor format
1075_20110711_130611_melville.all.mb58.gz 4.48MB Kongsberg multibeam vendor format
1076_20110711_133605_melville.all.mb58.gz 4.56MB Kongsberg multibeam vendor format
1077_20110711_140604_melville.all.mb58.gz 4.66MB Kongsberg multibeam vendor format
1078_20110711_143603_melville.all.mb58.gz 4.76MB Kongsberg multibeam vendor format
1079_20110711_150611_melville.all.mb58.gz 4.46MB Kongsberg multibeam vendor format
1080_20110711_153612_melville.all.mb58.gz 4.76MB Kongsberg multibeam vendor format
1081_20110711_160610_melville.all.mb58.gz 4.50MB Kongsberg multibeam vendor format
1082_20110711_163558_melville.all.mb58.gz 4.67MB Kongsberg multibeam vendor format
1083_20110711_170603_melville.all.mb58.gz 4.55MB Kongsberg multibeam vendor format
1084_20110711_173608_melville.all.mb58.gz 4.35MB Kongsberg multibeam vendor format
1085_20110711_180605_melville.all.mb58.gz 4.32MB Kongsberg multibeam vendor format
1086_20110711_183604_melville.all.mb58.gz 4.22MB Kongsberg multibeam vendor format
1087_20110711_190608_melville.all.mb58.gz 4.55MB Kongsberg multibeam vendor format
1088_20110711_193611_melville.all.mb58.gz 4.37MB Kongsberg multibeam vendor format
1089_20110711_200608_melville.all.mb58.gz 4.40MB Kongsberg multibeam vendor format
1090_20110711_203607_melville.all.mb58.gz 4.32MB Kongsberg multibeam vendor format
1091_20110711_210558_melville.all.mb58.gz 4.34MB Kongsberg multibeam vendor format
1092_20110711_213610_melville.all.mb58.gz 4.45MB Kongsberg multibeam vendor format
1093_20110711_220558_melville.all.mb58.gz 4.51MB Kongsberg multibeam vendor format
1094_20110711_223613_melville.all.mb58.gz 4.28MB Kongsberg multibeam vendor format
1095_20110711_230555_melville.all.mb58.gz 4.33MB Kongsberg multibeam vendor format
1096_20110711_233614_melville.all.mb58.gz 4.30MB Kongsberg multibeam vendor format
1097_20110712_000601_melville.all.mb58.gz 4.32MB Kongsberg multibeam vendor format
1098_20110712_003601_melville.all.mb58.gz 4.32MB Kongsberg multibeam vendor format
1099_20110712_010601_melville.all.mb58.gz 4.26MB Kongsberg multibeam vendor format
1100_20110712_013601_melville.all.mb58.gz 4.06MB Kongsberg multibeam vendor format
1101_20110712_020600_melville.all.mb58.gz 4.07MB Kongsberg multibeam vendor format
1102_20110712_023611_melville.all.mb58.gz 4.14MB Kongsberg multibeam vendor format
1103_20110712_030610_melville.all.mb58.gz 4.20MB Kongsberg multibeam vendor format
1104_20110712_033555_melville.all.mb58.gz 4.24MB Kongsberg multibeam vendor format
1105_20110712_040554_melville.all.mb58.gz 4.23MB Kongsberg multibeam vendor format
1106_20110712_043604_melville.all.mb58.gz 4.18MB Kongsberg multibeam vendor format
1107_20110712_050554_melville.all.mb58.gz 4.15MB Kongsberg multibeam vendor format
1108_20110712_053610_melville.all.mb58.gz 4.09MB Kongsberg multibeam vendor format
1109_20110712_060555_melville.all.mb58.gz 4.49MB Kongsberg multibeam vendor format
1110_20110712_063552_melville.all.mb58.gz 4.30MB Kongsberg multibeam vendor format
1111_20110712_070552_melville.all.mb58.gz 4.37MB Kongsberg multibeam vendor format
1112_20110712_073605_melville.all.mb58.gz 4.29MB Kongsberg multibeam vendor format
1113_20110712_080608_melville.all.mb58.gz 4.23MB Kongsberg multibeam vendor format
1114_20110712_083601_melville.all.mb58.gz 4.18MB Kongsberg multibeam vendor format
1115_20110712_090602_melville.all.mb58.gz 4.29MB Kongsberg multibeam vendor format
1116_20110712_093604_melville.all.mb58.gz 4.13MB Kongsberg multibeam vendor format
1117_20110712_100554_melville.all.mb58.gz 4.29MB Kongsberg multibeam vendor format
1118_20110712_103552_melville.all.mb58.gz 4.15MB Kongsberg multibeam vendor format
1119_20110712_110610_melville.all.mb58.gz 4.22MB Kongsberg multibeam vendor format
1120_20110712_113606_melville.all.mb58.gz 4.26MB Kongsberg multibeam vendor format
1121_20110712_120557_melville.all.mb58.gz 4.35MB Kongsberg multibeam vendor format
1122_20110712_123602_melville.all.mb58.gz 4.07MB Kongsberg multibeam vendor format
1123_20110712_130555_melville.all.mb58.gz 4.30MB Kongsberg multibeam vendor format
1124_20110712_133558_melville.all.mb58.gz 4.05MB Kongsberg multibeam vendor format
1125_20110712_140612_melville.all.mb58.gz 4.04MB Kongsberg multibeam vendor format
1126_20110712_143608_melville.all.mb58.gz 4.06MB Kongsberg multibeam vendor format
1127_20110712_150610_melville.all.mb58.gz 4.19MB Kongsberg multibeam vendor format
1128_20110712_153600_melville.all.mb58.gz 4.18MB Kongsberg multibeam vendor format
1129_20110712_160552_melville.all.mb58.gz 4.15MB Kongsberg multibeam vendor format
1130_20110712_163602_melville.all.mb58.gz 4.13MB Kongsberg multibeam vendor format
1131_20110712_170602_melville.all.mb58.gz 4.18MB Kongsberg multibeam vendor format
1132_20110712_173552_melville.all.mb58.gz 4.42MB Kongsberg multibeam vendor format
1133_20110712_180553_melville.all.mb58.gz 7.83MB Kongsberg multibeam vendor format
1134_20110712_183603_melville.all.mb58.gz 7.66MB Kongsberg multibeam vendor format
1135_20110712_190609_melville.all.mb58.gz 7.67MB Kongsberg multibeam vendor format
1136_20110712_193602_melville.all.mb58.gz 7.77MB Kongsberg multibeam vendor format
1137_20110712_200603_melville.all.mb58.gz 8.40MB Kongsberg multibeam vendor format
1138_20110712_203608_melville.all.mb58.gz 5.47MB Kongsberg multibeam vendor format
1139_20110712_210606_melville.all.mb58.gz 4.31MB Kongsberg multibeam vendor format
1140_20110712_213558_melville.all.mb58.gz 4.21MB Kongsberg multibeam vendor format
1141_20110712_220554_melville.all.mb58.gz 4.45MB Kongsberg multibeam vendor format
1142_20110712_223609_melville.all.mb58.gz 4.18MB Kongsberg multibeam vendor format
1143_20110712_230608_melville.all.mb58.gz 4.09MB Kongsberg multibeam vendor format
1144_20110712_233552_melville.all.mb58.gz 4.00MB Kongsberg multibeam vendor format
1145_20110713_000605_melville.all.mb58.gz 4.16MB Kongsberg multibeam vendor format
1146_20110713_003606_melville.all.mb58.gz 4.14MB Kongsberg multibeam vendor format
1147_20110713_010551_melville.all.mb58.gz 4.22MB Kongsberg multibeam vendor format
1148_20110713_013605_melville.all.mb58.gz 4.17MB Kongsberg multibeam vendor format
1149_20110713_020608_melville.all.mb58.gz 4.19MB Kongsberg multibeam vendor format
1150_20110713_023551_melville.all.mb58.gz 4.21MB Kongsberg multibeam vendor format
1151_20110713_030602_melville.all.mb58.gz 4.18MB Kongsberg multibeam vendor format
1152_20110713_033600_melville.all.mb58.gz 4.23MB Kongsberg multibeam vendor format
1153_20110713_040605_melville.all.mb58.gz 4.18MB Kongsberg multibeam vendor format
1154_20110713_043557_melville.all.mb58.gz 3.94MB Kongsberg multibeam vendor format
1155_20110713_050553_melville.all.mb58.gz 4.32MB Kongsberg multibeam vendor format
1156_20110713_053604_melville.all.mb58.gz 4.33MB Kongsberg multibeam vendor format
1157_20110713_060558_melville.all.mb58.gz 4.23MB Kongsberg multibeam vendor format
1158_20110713_063549_melville.all.mb58.gz 4.24MB Kongsberg multibeam vendor format
1159_20110713_070601_melville.all.mb58.gz 4.39MB Kongsberg multibeam vendor format
1160_20110713_073606_melville.all.mb58.gz 4.48MB Kongsberg multibeam vendor format
1161_20110713_080557_melville.all.mb58.gz 4.48MB Kongsberg multibeam vendor format
1162_20110713_083559_melville.all.mb58.gz 4.52MB Kongsberg multibeam vendor format
1163_20110713_090553_melville.all.mb58.gz 4.56MB Kongsberg multibeam vendor format
1164_20110713_093558_melville.all.mb58.gz 4.65MB Kongsberg multibeam vendor format
1165_20110713_100555_melville.all.mb58.gz 4.33MB Kongsberg multibeam vendor format
1166_20110713_103551_melville.all.mb58.gz 4.49MB Kongsberg multibeam vendor format
1167_20110713_110551_melville.all.mb58.gz 4.42MB Kongsberg multibeam vendor format
1168_20110713_113605_melville.all.mb58.gz 4.35MB Kongsberg multibeam vendor format
1169_20110713_120554_melville.all.mb58.gz 4.52MB Kongsberg multibeam vendor format
1170_20110713_123600_melville.all.mb58.gz 4.59MB Kongsberg multibeam vendor format
1171_20110713_130550_melville.all.mb58.gz 4.75MB Kongsberg multibeam vendor format
1172_20110713_133558_melville.all.mb58.gz 4.83MB Kongsberg multibeam vendor format
1173_20110713_140600_melville.all.mb58.gz 4.81MB Kongsberg multibeam vendor format
1174_20110713_143600_melville.all.mb58.gz 4.53MB Kongsberg multibeam vendor format
1175_20110713_150603_melville.all.mb58.gz 4.24MB Kongsberg multibeam vendor format
1176_20110713_153605_melville.all.mb58.gz 4.61MB Kongsberg multibeam vendor format
1177_20110713_160550_melville.all.mb58.gz 4.66MB Kongsberg multibeam vendor format
1178_20110713_163549_melville.all.mb58.gz 4.48MB Kongsberg multibeam vendor format
1179_20110713_170551_melville.all.mb58.gz 4.78MB Kongsberg multibeam vendor format
1180_20110713_173557_melville.all.mb58.gz 4.58MB Kongsberg multibeam vendor format
1181_20110713_180603_melville.all.mb58.gz 4.54MB Kongsberg multibeam vendor format
1182_20110713_183604_melville.all.mb58.gz 4.23MB Kongsberg multibeam vendor format
1183_20110713_190558_melville.all.mb58.gz 4.50MB Kongsberg multibeam vendor format
1184_20110713_193552_melville.all.mb58.gz 4.65MB Kongsberg multibeam vendor format
1185_20110713_200604_melville.all.mb58.gz 4.97MB Kongsberg multibeam vendor format
1186_20110713_203547_melville.all.mb58.gz 7.34MB Kongsberg multibeam vendor format
1187_20110713_210600_melville.all.mb58.gz 8.69MB Kongsberg multibeam vendor format
1188_20110713_213549_melville.all.mb58.gz 8.75MB Kongsberg multibeam vendor format
1189_20110713_220557_melville.all.mb58.gz 8.71MB Kongsberg multibeam vendor format
1190_20110713_223558_melville.all.mb58.gz 6.94MB Kongsberg multibeam vendor format
1191_20110713_230552_melville.all.mb58.gz 4.77MB Kongsberg multibeam vendor format
1192_20110713_233549_melville.all.mb58.gz 4.56MB Kongsberg multibeam vendor format
1193_20110714_000559_melville.all.mb58.gz 4.44MB Kongsberg multibeam vendor format
1194_20110714_003602_melville.all.mb58.gz 4.36MB Kongsberg multibeam vendor format
1195_20110714_010558_melville.all.mb58.gz 4.33MB Kongsberg multibeam vendor format
1196_20110714_013603_melville.all.mb58.gz 4.40MB Kongsberg multibeam vendor format
1197_20110714_020547_melville.all.mb58.gz 4.49MB Kongsberg multibeam vendor format
1198_20110714_023606_melville.all.mb58.gz 4.30MB Kongsberg multibeam vendor format
1199_20110714_030551_melville.all.mb58.gz 4.63MB Kongsberg multibeam vendor format
1200_20110714_033556_melville.all.mb58.gz 4.46MB Kongsberg multibeam vendor format
1201_20110714_040547_melville.all.mb58.gz 4.26MB Kongsberg multibeam vendor format
1202_20110714_043559_melville.all.mb58.gz 3.95MB Kongsberg multibeam vendor format
1203_20110714_050549_melville.all.mb58.gz 4.31MB Kongsberg multibeam vendor format
1204_20110714_053552_melville.all.mb58.gz 4.66MB Kongsberg multibeam vendor format
1205_20110714_060548_melville.all.mb58.gz 4.87MB Kongsberg multibeam vendor format
1206_20110714_063550_melville.all.mb58.gz 4.65MB Kongsberg multibeam vendor format
1207_20110714_070552_melville.all.mb58.gz 4.40MB Kongsberg multibeam vendor format
1208_20110714_073555_melville.all.mb58.gz 4.01MB Kongsberg multibeam vendor format
1209_20110714_080558_melville.all.mb58.gz 4.55MB Kongsberg multibeam vendor format
1210_20110714_083607_melville.all.mb58.gz 4.44MB Kongsberg multibeam vendor format
1211_20110714_090551_melville.all.mb58.gz 4.60MB Kongsberg multibeam vendor format
1212_20110714_093558_melville.all.mb58.gz 4.50MB Kongsberg multibeam vendor format
1213_20110714_100556_melville.all.mb58.gz 4.66MB Kongsberg multibeam vendor format
1214_20110714_103556_melville.all.mb58.gz 4.41MB Kongsberg multibeam vendor format
1215_20110714_110552_melville.all.mb58.gz 4.39MB Kongsberg multibeam vendor format
1216_20110714_113603_melville.all.mb58.gz 4.55MB Kongsberg multibeam vendor format
1217_20110714_120552_melville.all.mb58.gz 4.38MB Kongsberg multibeam vendor format
1218_20110714_123548_melville.all.mb58.gz 4.26MB Kongsberg multibeam vendor format
1219_20110714_130553_melville.all.mb58.gz 4.36MB Kongsberg multibeam vendor format
1220_20110714_133552_melville.all.mb58.gz 4.26MB Kongsberg multibeam vendor format
1221_20110714_140552_melville.all.mb58.gz 4.27MB Kongsberg multibeam vendor format
1222_20110714_143559_melville.all.mb58.gz 4.14MB Kongsberg multibeam vendor format
1223_20110714_150547_melville.all.mb58.gz 4.30MB Kongsberg multibeam vendor format
1224_20110714_153557_melville.all.mb58.gz 4.26MB Kongsberg multibeam vendor format
1225_20110714_160601_melville.all.mb58.gz 4.37MB Kongsberg multibeam vendor format
1226_20110714_163550_melville.all.mb58.gz 4.43MB Kongsberg multibeam vendor format
1227_20110714_170604_melville.all.mb58.gz 4.19MB Kongsberg multibeam vendor format
1228_20110714_173605_melville.all.mb58.gz 4.01MB Kongsberg multibeam vendor format
1229_20110714_180548_melville.all.mb58.gz 4.17MB Kongsberg multibeam vendor format
1230_20110714_183602_melville.all.mb58.gz 4.06MB Kongsberg multibeam vendor format
1231_20110714_190556_melville.all.mb58.gz 4.05MB Kongsberg multibeam vendor format
1232_20110714_193555_melville.all.mb58.gz 4.45MB Kongsberg multibeam vendor format
1233_20110714_200559_melville.all.mb58.gz 4.56MB Kongsberg multibeam vendor format
1234_20110714_203555_melville.all.mb58.gz 4.25MB Kongsberg multibeam vendor format
1235_20110714_210556_melville.all.mb58.gz 4.24MB Kongsberg multibeam vendor format
1236_20110714_213553_melville.all.mb58.gz 4.22MB Kongsberg multibeam vendor format
1237_20110714_220602_melville.all.mb58.gz 4.12MB Kongsberg multibeam vendor format
1238_20110714_223558_melville.all.mb58.gz 4.13MB Kongsberg multibeam vendor format
1239_20110714_230549_melville.all.mb58.gz 4.09MB Kongsberg multibeam vendor format
1240_20110714_233548_melville.all.mb58.gz 4.23MB Kongsberg multibeam vendor format
1241_20110715_000603_melville.all.mb58.gz 4.04MB Kongsberg multibeam vendor format
1242_20110715_003551_melville.all.mb58.gz 4.35MB Kongsberg multibeam vendor format
1243_20110715_010607_melville.all.mb58.gz 4.01MB Kongsberg multibeam vendor format
1244_20110715_013601_melville.all.mb58.gz 4.59MB Kongsberg multibeam vendor format
1245_20110715_020600_melville.all.mb58.gz 4.25MB Kongsberg multibeam vendor format
1246_20110715_023600_melville.all.mb58.gz 4.29MB Kongsberg multibeam vendor format
1247_20110715_030544_melville.all.mb58.gz 4.38MB Kongsberg multibeam vendor format
1248_20110715_033553_melville.all.mb58.gz 4.38MB Kongsberg multibeam vendor format
1249_20110715_040546_melville.all.mb58.gz 4.36MB Kongsberg multibeam vendor format
1250_20110715_043604_melville.all.mb58.gz 4.10MB Kongsberg multibeam vendor format
1251_20110715_050600_melville.all.mb58.gz 4.14MB Kongsberg multibeam vendor format
1252_20110715_053544_melville.all.mb58.gz 4.30MB Kongsberg multibeam vendor format
1253_20110715_060552_melville.all.mb58.gz 4.35MB Kongsberg multibeam vendor format
1254_20110715_063545_melville.all.mb58.gz 4.40MB Kongsberg multibeam vendor format
1255_20110715_070601_melville.all.mb58.gz 4.45MB Kongsberg multibeam vendor format
1256_20110715_073551_melville.all.mb58.gz 4.44MB Kongsberg multibeam vendor format
1257_20110715_080602_melville.all.mb58.gz 4.34MB Kongsberg multibeam vendor format
1258_20110715_083555_melville.all.mb58.gz 4.20MB Kongsberg multibeam vendor format
1259_20110715_090603_melville.all.mb58.gz 4.14MB Kongsberg multibeam vendor format
1260_20110715_093548_melville.all.mb58.gz 4.31MB Kongsberg multibeam vendor format
1261_20110715_100557_melville.all.mb58.gz 4.31MB Kongsberg multibeam vendor format
1262_20110715_103557_melville.all.mb58.gz 4.23MB Kongsberg multibeam vendor format
1263_20110715_110548_melville.all.mb58.gz 4.20MB Kongsberg multibeam vendor format
1264_20110715_113556_melville.all.mb58.gz 4.33MB Kongsberg multibeam vendor format
1265_20110715_120551_melville.all.mb58.gz 4.26MB Kongsberg multibeam vendor format
1266_20110715_123548_melville.all.mb58.gz 4.34MB Kongsberg multibeam vendor format
1267_20110715_130547_melville.all.mb58.gz 4.42MB Kongsberg multibeam vendor format
1268_20110715_133548_melville.all.mb58.gz 4.44MB Kongsberg multibeam vendor format
1269_20110715_140558_melville.all.mb58.gz 4.23MB Kongsberg multibeam vendor format
1270_20110715_143544_melville.all.mb58.gz 4.25MB Kongsberg multibeam vendor format
1271_20110715_150552_melville.all.mb58.gz 4.23MB Kongsberg multibeam vendor format
1272_20110715_153559_melville.all.mb58.gz 4.18MB Kongsberg multibeam vendor format
1273_20110715_160552_melville.all.mb58.gz 4.25MB Kongsberg multibeam vendor format
1274_20110715_163600_melville.all.mb58.gz 4.14MB Kongsberg multibeam vendor format
1275_20110715_170547_melville.all.mb58.gz 4.15MB Kongsberg multibeam vendor format
1276_20110715_173553_melville.all.mb58.gz 4.53MB Kongsberg multibeam vendor format
1277_20110715_180545_melville.all.mb58.gz 4.57MB Kongsberg multibeam vendor format
1278_20110715_183558_melville.all.mb58.gz 4.31MB Kongsberg multibeam vendor format
1279_20110715_190559_melville.all.mb58.gz 4.33MB Kongsberg multibeam vendor format
1280_20110715_193554_melville.all.mb58.gz 4.21MB Kongsberg multibeam vendor format
1281_20110715_200542_melville.all.mb58.gz 4.47MB Kongsberg multibeam vendor format
1282_20110715_203556_melville.all.mb58.gz 4.42MB Kongsberg multibeam vendor format
1283_20110715_210557_melville.all.mb58.gz 4.41MB Kongsberg multibeam vendor format
1284_20110715_213544_melville.all.mb58.gz 4.24MB Kongsberg multibeam vendor format
1285_20110715_220558_melville.all.mb58.gz 4.30MB Kongsberg multibeam vendor format
1286_20110715_223544_melville.all.mb58.gz 4.38MB Kongsberg multibeam vendor format
1287_20110715_230556_melville.all.mb58.gz 4.45MB Kongsberg multibeam vendor format
1288_20110715_233548_melville.all.mb58.gz 4.42MB Kongsberg multibeam vendor format
1289_20110716_000558_melville.all.mb58.gz 4.35MB Kongsberg multibeam vendor format
1290_20110716_003546_melville.all.mb58.gz 4.41MB Kongsberg multibeam vendor format
1291_20110716_010558_melville.all.mb58.gz 4.55MB Kongsberg multibeam vendor format
1292_20110716_013559_melville.all.mb58.gz 4.46MB Kongsberg multibeam vendor format
1293_20110716_020556_melville.all.mb58.gz 4.36MB Kongsberg multibeam vendor format
1294_20110716_023545_melville.all.mb58.gz 5.23MB Kongsberg multibeam vendor format
1295_20110716_030540_melville.all.mb58.gz 9.46MB Kongsberg multibeam vendor format
1296_20110716_033540_melville.all.mb58.gz 4.75MB Kongsberg multibeam vendor format
1297_20110716_040542_melville.all.mb58.gz 4.27MB Kongsberg multibeam vendor format
1298_20110716_043550_melville.all.mb58.gz 4.67MB Kongsberg multibeam vendor format
1299_20110716_050547_melville.all.mb58.gz 4.73MB Kongsberg multibeam vendor format
1300_20110716_053554_melville.all.mb58.gz 4.46MB Kongsberg multibeam vendor format
1301_20110716_060540_melville.all.mb58.gz 4.54MB Kongsberg multibeam vendor format
1302_20110716_063550_melville.all.mb58.gz 4.42MB Kongsberg multibeam vendor format
1303_20110716_070554_melville.all.mb58.gz 4.40MB Kongsberg multibeam vendor format
1304_20110716_073553_melville.all.mb58.gz 4.22MB Kongsberg multibeam vendor format
1305_20110716_080550_melville.all.mb58.gz 4.29MB Kongsberg multibeam vendor format
1306_20110716_083547_melville.all.mb58.gz 4.07MB Kongsberg multibeam vendor format
1307_20110716_090600_melville.all.mb58.gz 3.94MB Kongsberg multibeam vendor format
1308_20110716_093556_melville.all.mb58.gz 4.30MB Kongsberg multibeam vendor format
1309_20110716_100556_melville.all.mb58.gz 4.48MB Kongsberg multibeam vendor format
1310_20110716_103543_melville.all.mb58.gz 4.34MB Kongsberg multibeam vendor format
1311_20110716_110551_melville.all.mb58.gz 4.43MB Kongsberg multibeam vendor format
1312_20110716_113552_melville.all.mb58.gz 4.42MB Kongsberg multibeam vendor format
1313_20110716_120543_melville.all.mb58.gz 4.40MB Kongsberg multibeam vendor format
1314_20110716_123543_melville.all.mb58.gz 4.53MB Kongsberg multibeam vendor format
1315_20110716_130551_melville.all.mb58.gz 4.20MB Kongsberg multibeam vendor format
1316_20110716_133541_melville.all.mb58.gz 4.72MB Kongsberg multibeam vendor format
1317_20110716_140549_melville.all.mb58.gz 4.54MB Kongsberg multibeam vendor format
1318_20110716_143538_melville.all.mb58.gz 4.48MB Kongsberg multibeam vendor format
1319_20110716_150541_melville.all.mb58.gz 4.28MB Kongsberg multibeam vendor format
1320_20110716_153554_melville.all.mb58.gz 4.36MB Kongsberg multibeam vendor format
1321_20110716_160545_melville.all.mb58.gz 4.32MB Kongsberg multibeam vendor format
1322_20110716_163548_melville.all.mb58.gz 4.67MB Kongsberg multibeam vendor format
1323_20110716_170540_melville.all.mb58.gz 7.58MB Kongsberg multibeam vendor format
1324_20110716_173542_melville.all.mb58.gz 11.38MB Kongsberg multibeam vendor format
1325_20110716_180544_melville.all.mb58.gz 14.09MB Kongsberg multibeam vendor format
1326_20110716_183542_melville.all.mb58.gz 17.44MB Kongsberg multibeam vendor format
1327_20110716_190540_melville.all.mb58.gz 20.75MB Kongsberg multibeam vendor format
1328_20110716_193539_melville.all.mb58.gz 18.11MB Kongsberg multibeam vendor format
1329_20110716_200541_melville.all.mb58.gz 13.96MB Kongsberg multibeam vendor format
1330_20110716_203542_melville.all.mb58.gz 13.04MB Kongsberg multibeam vendor format
1331_20110716_210544_melville.all.mb58.gz 13.91MB Kongsberg multibeam vendor format
1332_20110716_213539_melville.all.mb58.gz 14.50MB Kongsberg multibeam vendor format
1333_20110716_220542_melville.all.mb58.gz 25.10MB Kongsberg multibeam vendor format
1334_20110716_223537_melville.all.mb58.gz 20.63MB Kongsberg multibeam vendor format
1335_20110716_230540_melville.all.mb58.gz 15.16MB Kongsberg multibeam vendor format
1336_20110716_233539_melville.all.mb58.gz 26.70MB Kongsberg multibeam vendor format
1337_20110716_235322_melville.all.mb58.gz 82.7KB Kongsberg multibeam vendor format
1338_20110716_235606_melville.all.mb58.gz 18.3KB Kongsberg multibeam vendor format
1339_20110716_235838_melville.all.mb58.gz 0.56MB Kongsberg multibeam vendor format

Metadata Files: 2

Files File Size Description
MV1106_Multibeam.xml NGDC created ISO metadata
xbt_bag_info.tar.gz 1.1KB Additional cruise information

Ancillary Files: 1

Files File Size Description
xbt.tar.gz 104.7KB Expendable Bathythermograph (XBT) data